AU413 Weather Reports


time (UTC)temp
F
wind
direction
speed
knots
gust
knots
rain 1hr
in
rain 24hr
in
rain mn
in
humidity
%
barometer
mb
20260906065913 80 275 4.3 6.1 0.00 0.00 0.00 56 1022.7
20260906065809 80 274 3.5 6.1 0.00 0.00 0.00 57 1022.7
20260906065706 80 273 3.5 6.1 0.00 0.00 0.00 57 1022.5
20260906065506 80 270 3.5 4.3 0.00 0.00 0.00 57 1022.3
20260906065405 80 270 3.5 4.3 0.00 0.00 0.00 56 1022.3
20260906065308 80 272 3.5 4.3 0.00 0.00 0.00 57 1022.4
20260906065205 80 274 2.6 4.3 0.00 0.00 0.00 56 1022.5
20260906065107 80 273 2.6 4.3 0.00 0.00 0.00 56 1022.3
20260906064906 80 265 2.6 3.5 0.00 0.00 0.00 56 1022.3
20260906064704 80 263 2.6 3.5 0.00 0.00 0.00 56 1022.2
20260906064605 80 258 2.6 3.5 0.00 0.00 0.00 56 1022.2
20260906064505 80 260 2.6 3.5 0.00 0.00 0.00 56 1022.2
20260906064404 80 259 2.6 3.5 0.00 0.00 0.00 56 1022.2
20260906064305 80 260 2.6 3.5 0.00 0.00 0.00 56 1022.2
20260906064204 80 257 2.6 3.5 0.00 0.00 0.00 56 1022.2
20260906064104 80 258 2.6 3.5 0.00 0.00 0.00 56 1022.2
20260906064005 80 259 2.6 3.5 0.00 0.00 0.00 56 1022.2
20260906063904 80 261 2.6 3.5 0.00 0.00 0.00 56 1022.4
20260906063804 80 259 2.6 3.5 0.00 0.00 0.00 56 1022.2
20260906063704 79 256 2.6 3.5 0.00 0.00 0.00 56 1022.2
20260906063604 79 257 2.6 3.5 0.00 0.00 0.00 56 1022.2
20260906063504 79 258 2.6 3.5 0.00 0.00 0.00 56 1022.1
20260906063404 79 259 2.6 3.5 0.00 0.00 0.00 56 1022.3
20260906063305 79 257 2.6 3.5 0.00 0.00 0.00 56 1022.0
20260906063204 79 257 2.6 3.5 0.00 0.00 0.00 56 1022.3
20260906063104 79 254 2.6 4.3 0.00 0.00 0.00 57 1022.3
20260906062804 79 251 3.5 4.3 0.00 0.00 0.00 57 1022.3
20260906062604 79 251 3.5 5.2 0.00 0.00 0.00 57 1022.1
20260906062505 79 251 3.5 5.2 0.00 0.00 0.00 57 1022.2
20260906062306 78 253 4.3 5.2 0.00 0.00 0.00 57 1022.3
20260906062205 78 253 4.3 5.2 0.00 0.00 0.00 58 1022.3
20260906062104 78 254 4.3 5.2 0.00 0.00 0.00 58 1022.4
20260906062004 78 253 4.3 5.2 0.00 0.00 0.00 58 1022.3
20260906061804 78 254 4.3 5.2 0.00 0.00 0.00 58 1022.2
20260906061704 78 253 4.3 5.2 0.00 0.00 0.00 57 1022.3
20260906061604 78 252 4.3 5.2 0.00 0.00 0.00 57 1022.2
20260906061405 78 250 4.3 5.2 0.00 0.00 0.00 58 1022.1
20260906061204 78 245 4.3 5.2 0.00 0.00 0.00 58 1022.0
20260906061104 77 248 4.3 5.2 0.00 0.00 0.00 58 1022.0
20260906061005 77 247 4.3 5.2 0.00 0.00 0.00 58 1022.0
20260906060904 77 249 4.3 5.2 0.00 0.00 0.00 58 1022.0
20260906060705 77 250 4.3 5.2 0.00 0.00 0.00 58 1021.9
20260906060604 77 253 4.3 5.2 0.00 0.00 0.00 58 1021.9
20260906060505 77 250 4.3 5.2 0.00 0.00 0.00 58 1022.0
20260906060404 77 250 4.3 5.2 0.00 0.00 0.00 58 1022.0
20260906060305 77 249 4.3 5.2 0.00 0.00 0.00 58 1021.9
20260906060104 77 248 4.3 5.2 0.00 0.00 0.00 57 1022.1
20260906060005 77 247 4.3 5.2 0.00 0.00 0.00 58 1022.0
20260906055904 77 244 4.3 5.2 0.00 0.00 0.00 58 1022.0
20260906055805 78 242 4.3 5.2 0.00 0.00 0.00 58 1022.0
20260906055704 78 242 4.3 5.2 0.00 0.00 0.00 58 1021.8
20260906055604 78 239 4.3 5.2 0.00 0.00 0.00 58 1022.0
20260906055505 78 241 4.3 5.2 0.00 0.00 0.00 58 1022.0
20260906055405 78 242 4.3 5.2 0.00 0.00 0.00 58 1021.8
20260906055306 78 243 4.3 5.2 0.00 0.00 0.00 58 1021.9
20260906055205 78 245 4.3 5.2 0.00 0.00 0.00 59 1021.8
20260906055104 78 245 4.3 5.2 0.00 0.00 0.00 58 1021.9
20260906055004 78 244 4.3 5.2 0.00 0.00 0.00 59 1021.8
20260906054904 77 246 4.3 6.1 0.00 0.00 0.00 59 1021.8
20260906054804 77 246 4.3 6.1 0.00 0.00 0.00 59 1021.7
20260906054704 77 245 5.2 7.0 0.00 0.00 0.00 59 1021.9
20260906054605 77 246 5.2 7.0 0.00 0.00 0.00 59 1021.8
20260906054504 77 245 5.2 7.0 0.00 0.00 0.00 59 1021.7
20260906054404 77 243 5.2 7.0 0.00 0.00 0.00 59 1021.7
20260906054304 77 245 6.1 7.0 0.00 0.00 0.00 59 1021.6
20260906054205 77 245 6.1 7.0 0.00 0.00 0.00 59 1021.8
20260906054105 77 246 6.1 7.0 0.00 0.00 0.00 59 1021.6
20260906054004 77 248 6.1 7.0 0.00 0.00 0.00 59 1021.6
20260906053804 77 246 6.1 7.0 0.00 0.00 0.00 59 1021.6
20260906053704 77 245 6.1 7.0 0.00 0.00 0.00 59 1021.6
20260906053604 77 246 6.1 7.0 0.00 0.00 0.00 59 1021.6
20260906053404 77 247 6.1 7.0 0.00 0.00 0.00 59 1021.6
20260906053304 77 248 5.2 7.0 0.00 0.00 0.00 59 1021.5
20260906053204 77 248 5.2 7.0 0.00 0.00 0.00 59 1021.6
20260906053005 77 246 5.2 7.0 0.00 0.00 0.00 59 1021.6
20260906052904 77 249 5.2 5.2 0.00 0.00 0.00 60 1021.8
20260906052804 77 249 5.2 5.2 0.00 0.00 0.00 59 1021.6
20260906052704 77 246 5.2 5.2 0.00 0.00 0.00 59 1021.6
20260906052504 77 246 5.2 5.2 0.00 0.00 0.00 59 1021.6
20260906052404 77 246 4.3 5.2 0.00 0.00 0.00 59 1021.6
20260906052305 77 246 5.2 5.2 0.00 0.00 0.00 59 1021.5
20260906052204 77 246 5.2 5.2 0.00 0.00 0.00 59 1021.6
20260906052104 77 246 5.2 5.2 0.00 0.00 0.00 59 1021.6
20260906051906 77 246 5.2 6.1 0.00 0.00 0.00 58 1021.5
20260906051804 77 248 5.2 7.0 0.00 0.00 0.00 58 1021.5
20260906051604 77 251 5.2 7.0 0.00 0.00 0.00 58 1021.6
20260906051505 77 251 5.2 7.0 0.00 0.00 0.00 59 1021.6
20260906051404 77 251 5.2 7.0 0.00 0.00 0.00 59 1021.5
20260906051305 77 251 5.2 7.0 0.00 0.00 0.00 58 1021.5
20260906051105 77 251 6.1 7.0 0.00 0.00 0.00 59 1021.7
20260906051004 77 249 6.1 7.0 0.00 0.00 0.00 59 1021.4
20260906050904 77 249 6.1 7.0 0.00 0.00 0.00 58 1021.5
20260906050704 77 250 6.1 7.0 0.00 0.00 0.00 58 1021.5
20260906050604 77 250 6.1 7.0 0.00 0.00 0.00 59 1021.5
20260906050504 77 250 6.1 7.0 0.00 0.00 0.00 58 1021.5
20260906050404 77 250 6.1 7.0 0.00 0.00 0.00 58 1021.4
20260906050204 77 250 6.1 7.0 0.00 0.00 0.00 58 1021.4
20260906050105 77 249 6.1 7.0 0.00 0.00 0.00 58 1021.5
20260906050005 77 251 6.1 7.0 0.00 0.00 0.00 58 1021.4
20260906045904 77 251 6.1 7.0 0.00 0.00 0.00 57 1021.4
20260906045805 77 249 6.1 7.0 0.00 0.00 0.00 58 1021.4
20260906045705 77 247 6.1 7.0 0.00 0.00 0.00 57 1021.5
20260906045605 77 247 6.1 7.0 0.00 0.00 0.00 57 1021.4
20260906045404 77 247 6.1 7.0 0.00 0.00 0.00 57 1021.3
20260906045306 77 247 6.1 7.0 0.00 0.00 0.00 56 1021.2
20260906045204 77 248 6.1 7.0 0.00 0.00 0.00 56 1021.5
20260906045104 77 250 6.1 7.0 0.00 0.00 0.00 56 1021.2
20260906045005 77 250 6.1 7.0 0.00 0.00 0.00 56 1021.3
20260906044904 76 250 5.2 7.0 0.00 0.00 0.00 56 1021.3
20260906044805 76 252 5.2 7.0 0.00 0.00 0.00 57 1021.3
20260906044704 76 252 5.2 7.0 0.00 0.00 0.00 57 1021.2
20260906044605 76 252 5.2 6.1 0.00 0.00 0.00 57 1021.1
20260906044506 76 252 5.2 6.1 0.00 0.00 0.00 56 1021.2
20260906044404 76 252 5.2 6.1 0.00 0.00 0.00 56 1021.2
20260906044304 76 252 5.2 6.1 0.00 0.00 0.00 56 1021.2
20260906044204 76 250 5.2 6.1 0.00 0.00 0.00 56 1021.3
20260906044104 76 248 5.2 6.1 0.00 0.00 0.00 56 1021.3
20260906044005 76 248 5.2 6.1 0.00 0.00 0.00 56 1021.4
20260906043905 76 248 5.2 6.1 0.00 0.00 0.00 56 1021.2
20260906043804 76 250 5.2 6.1 0.00 0.00 0.00 56 1021.1
20260906043504 76 251 5.2 7.0 0.00 0.00 0.00 56 1021.2
20260906043404 76 251 5.2 7.0 0.00 0.00 0.00 56 1021.3
20260906043304 76 251 5.2 7.0 0.00 0.00 0.00 56 1021.2
20260906043105 76 254 5.2 7.0 0.00 0.00 0.00 56 1021.2
20260906043005 76 254 5.2 7.0 0.00 0.00 0.00 56 1021.1
20260906042904 76 254 5.2 7.0 0.00 0.00 0.00 56 1021.2
20260906042704 76 249 5.2 7.0 0.00 0.00 0.00 57 1021.2
20260906042604 76 247 5.2 7.0 0.00 0.00 0.00 57 1021.1
20260906042505 76 247 5.2 7.0 0.00 0.00 0.00 57 1021.2
20260906042404 76 247 5.2 6.1 0.00 0.00 0.00 57 1020.9
20260906042306 76 247 5.2 6.1 0.00 0.00 0.00 57 1021.1
20260906042204 76 248 5.2 6.1 0.00 0.00 0.00 57 1021.1
20260906042104 76 248 5.2 6.1 0.00 0.00 0.00 57 1021.0
20260906042004 76 250 5.2 6.1 0.00 0.00 0.00 57 1021.1
20260906041904 75 250 5.2 6.1 0.00 0.00 0.00 57 1021.1
20260906041804 75 250 5.2 6.1 0.00 0.00 0.00 58 1021.1
20260906041605 75 252 5.2 7.0 0.00 0.00 0.00 58 1021.2
20260906041504 75 252 5.2 7.0 0.00 0.00 0.00 58 1021.0
20260906041405 75 252 5.2 7.0 0.00 0.00 0.00 58 1021.1
20260906041304 75 251 5.2 7.0 0.00 0.00 0.00 58 1020.9
20260906041205 75 248 5.2 7.0 0.00 0.00 0.00 58 1021.1
20260906041105 75 247 5.2 7.0 0.00 0.00 0.00 58 1021.0
20260906041004 75 247 5.2 7.0 0.00 0.00 0.00 58 1020.9
20260906040904 75 247 5.2 7.0 0.00 0.00 0.00 58 1021.1
20260906040804 75 247 5.2 7.0 0.00 0.00 0.00 58 1021.0
20260906040704 75 247 5.2 7.0 0.00 0.00 0.00 58 1020.8
20260906040604 75 245 4.3 7.0 0.00 0.00 0.00 59 1021.0
20260906040504 74 244 4.3 5.2 0.00 0.00 0.00 59 1021.0
20260906040404 74 244 4.3 5.2 0.00 0.00 0.00 59 1021.0
20260906040304 74 246 4.3 5.2 0.00 0.00 0.00 60 1021.0
20260906040204 74 244 4.3 5.2 0.00 0.00 0.00 60 1020.9
20260906040005 74 244 4.3 4.3 0.00 0.00 0.00 60 1020.9
20260906035904 74 244 4.3 4.3 0.00 0.00 0.00 61 1020.9
20260906035704 74 243 4.3 4.3 0.00 0.00 0.00 61 1021.1
20260906035404 73 247 4.3 4.3 0.00 0.00 0.00 61 1020.8
20260906035306 73 246 4.3 4.3 0.00 0.00 0.00 62 1020.9
20260906035204 73 247 4.3 4.3 0.00 0.00 0.00 62 1020.9
20260906035104 73 247 4.3 4.3 0.00 0.00 0.00 62 1021.0
20260906035004 73 247 4.3 4.3 0.00 0.00 0.00 62 1020.7
20260906034904 73 247 4.3 4.3 0.00 0.00 0.00 63 1020.9
20260906034705 73 247 4.3 4.3 0.00 0.00 0.00 63 1020.6
20260906034604 73 247 4.3 4.3 0.00 0.00 0.00 63 1020.8
20260906034405 73 247 3.5 4.3 0.00 0.00 0.00 63 1020.9
20260906034304 73 247 3.5 4.3 0.00 0.00 0.00 63 1020.8
20260906034204 73 247 3.5 4.3 0.00 0.00 0.00 63 1020.9
20260906034104 73 247 3.5 4.3 0.00 0.00 0.00 63 1020.7
20260906034005 73 247 3.5 4.3 0.00 0.00 0.00 63 1020.8
20260906033904 73 247 3.5 4.3 0.00 0.00 0.00 63 1020.8
20260906033804 73 247 3.5 4.3 0.00 0.00 0.00 63 1020.8
20260906033704 73 247 3.5 4.3 0.00 0.00 0.00 62 1020.8
20260906033604 73 247 3.5 4.3 0.00 0.00 0.00 62 1020.7
20260906033504 73 247 3.5 4.3 0.00 0.00 0.00 62 1020.9
20260906033405 73 246 2.6 4.3 0.00 0.00 0.00 62 1020.8
20260906033304 73 248 2.6 3.5 0.00 0.00 0.00 63 1020.8
20260906033105 73 248 2.6 3.5 0.00 0.00 0.00 62 1020.8
20260906032804 72 248 1.7 2.6 0.00 0.00 0.00 61 1020.6
20260906032704 72 247 1.7 2.6 0.00 0.00 0.00 61 1020.6
20260906032604 72 247 1.7 2.6 0.00 0.00 0.00 61 1020.6
20260906032504 72 247 0.9 2.6 0.00 0.00 0.00 62 1020.7
20260906032405 72 245 0.9 2.6 0.00 0.00 0.00 62 1020.7
20260906032306 72 244 0.9 2.6 0.00 0.00 0.00 62 1020.7
20260906032206 72 242 0.9 2.6 0.00 0.00 0.00 62 1020.6
20260906032104 72 238 0.9 2.6 0.00 0.00 0.00 63 1020.6
20260906032004 72 232 0.0 1.7 0.00 0.00 0.00 64 1020.7
20260906031905 72 251 0.0 2.6 0.00 0.00 0.00 64 1020.5
20260906031804 72 256 0.9 3.5 0.00 0.00 0.00 64 1020.5
20260906031704 72 251 0.9 3.5 0.00 0.00 0.00 64 1020.5
20260906031504 72 256 0.9 3.5 0.00 0.00 0.00 63 1020.5
20260906031404 72 267 0.9 3.5 0.00 0.00 0.00 63 1020.5
20260906031304 73 271 1.7 3.5 0.00 0.00 0.00 63 1020.7
20260906031204 73 271 1.7 3.5 0.00 0.00 0.00 62 1020.7
20260906031104 73 270 1.7 4.3 0.00 0.00 0.00 62 1020.7
20260906031004 73 267 2.6 4.3 0.00 0.00 0.00 61 1020.5
20260906030905 73 267 2.6 4.3 0.00 0.00 0.00 60 1020.7
20260906030805 73 269 2.6 4.3 0.00 0.00 0.00 61 1020.5
20260906030704 73 274 2.6 4.3 0.00 0.00 0.00 61 1020.4
20260906030604 73 278 2.6 4.3 0.00 0.00 0.00 61 1020.5
20260906030504 73 276 2.6 4.3 0.00 0.00 0.00 61 1020.6
20260906030304 73 270 2.6 4.3 0.00 0.00 0.00 60 1020.7
20260906030204 73 270 2.6 4.3 0.00 0.00 0.00 60 1020.6
20260906030104 73 270 3.5 4.3 0.00 0.00 0.00 61 1020.3
20260906025904 72 274 3.5 4.3 0.00 0.00 0.00 62 1020.6
20260906025804 72 275 3.5 5.2 0.00 0.00 0.00 62 1020.6
20260906025705 72 277 3.5 5.2 0.00 0.00 0.00 63 1020.6
20260906025604 72 279 3.5 5.2 0.00 0.00 0.00 63 1020.5
20260906025504 72 279 4.3 5.2 0.00 0.00 0.00 63 1020.6
20260906025404 72 283 4.3 5.2 0.00 0.00 0.00 63 1020.5
20260906025306 72 285 4.3 5.2 0.00 0.00 0.00 63 1020.7
20260906025104 72 288 4.3 5.2 0.00 0.00 0.00 64 1020.6
20260906025005 72 290 4.3 5.2 0.00 0.00 0.00 65 1020.5
20260906024904 72 291 4.3 5.2 0.00 0.00 0.00 65 1020.7
20260906024804 72 291 4.3 5.2 0.00 0.00 0.00 65 1020.7
20260906024505 72 291 3.5 4.3 0.00 0.00 0.00 65 1020.7
20260906024204 72 287 2.6 4.3 0.00 0.00 0.00 65 1020.7
20260906024104 73 294 2.6 3.5 0.00 0.00 0.00 64 1020.5
20260906024005 73 300 2.6 3.5 0.00 0.00 0.00 63 1020.6
20260906023904 73 300 2.6 2.6 0.00 0.00 0.00 63 1020.6
20260906023804 73 298 2.6 2.6 0.00 0.00 0.00 63 1020.5
20260906023704 74 296 2.6 2.6 0.00 0.00 0.00 62 1020.6
20260906023604 74 290 2.6 2.6 0.00 0.00 0.00 62 1020.4
20260906023504 74 285 2.6 3.5 0.00 0.00 0.00 62 1020.5
20260906023405 74 283 2.6 3.5 0.00 0.00 0.00 61 1020.2
20260906023304 75 279 3.5 4.3 0.00 0.00 0.00 60 1020.5
20260906023204 76 266 3.5 4.3 0.00 0.00 0.00 59 1020.4
20260906023105 76 263 3.5 4.3 0.00 0.00 0.00 58 1020.7
20260906023005 76 259 3.5 4.3 0.00 0.00 0.00 57 1020.4
20260906022904 76 255 3.5 4.3 0.00 0.00 0.00 57 1020.3
20260906022704 76 255 4.3 4.3 0.00 0.00 0.00 57 1020.3
20260906022604 76 256 4.3 4.3 0.00 0.00 0.00 57 1020.2
20260906022405 76 254 4.3 4.3 0.00 0.00 0.00 57 1020.2
20260906022306 76 252 4.3 5.2 0.00 0.00 0.00 57 1020.2
20260906022004 76 251 4.3 5.2 0.00 0.00 0.00 57 1020.0
20260906021904 76 251 4.3 5.2 0.00 0.00 0.00 57 1020.2
20260906021804 76 250 4.3 5.2 0.00 0.00 0.00 56 1020.1
20260906021704 77 250 4.3 5.2 0.00 0.00 0.00 57 1020.1
20260906021603 77 249 5.2 5.2 0.00 0.00 0.00 57 1019.9
20260906021504 77 249 5.2 5.2 0.00 0.00 0.00 57 1020.0
20260906021404 77 249 5.2 5.2 0.00 0.00 0.00 57 1019.9
20260906021304 77 249 4.3 5.2 0.00 0.00 0.00 56 1020.1
20260906021204 77 249 4.3 5.2 0.00 0.00 0.00 56 1019.9
20260906021104 77 246 5.2 6.1 0.00 0.00 0.00 56 1020.1
20260906021004 77 246 5.2 7.0 0.00 0.00 0.00 56 1020.0
20260906020904 77 246 5.2 7.0 0.00 0.00 0.00 56 1020.1
20260906020805 77 247 5.2 7.0 0.00 0.00 0.00 56 1020.0
20260906020604 77 248 6.1 7.0 0.00 0.00 0.00 55 1020.0
20260906020505 77 248 6.1 7.0 0.00 0.00 0.00 55 1020.1
20260906020404 77 248 6.1 7.0 0.00 0.00 0.00 56 1020.1
20260906020304 77 250 6.1 7.0 0.00 0.00 0.00 56 1019.9
20260906020204 77 250 7.0 7.0 0.00 0.00 0.00 56 1019.9
20260906020105 77 252 7.0 7.0 0.00 0.00 0.00 57 1019.9
20260906020005 76 253 6.1 7.0 0.00 0.00 0.00 57 1020.0
20260906015904 76 253 6.1 7.0 0.00 0.00 0.00 57 1019.9
20260906015804 76 253 6.1 7.0 0.00 0.00 0.00 57 1019.8
20260906015705 76 250 6.1 7.0 0.00 0.00 0.00 57 1020.1
20260906015604 77 250 6.1 7.0 0.00 0.00 0.00 57 1020.0
20260906015504 77 250 6.1 7.0 0.00 0.00 0.00 57 1019.9
20260906015404 77 250 5.2 7.0 0.00 0.00 0.00 57 1020.0
20260906015306 76 248 5.2 7.0 0.00 0.00 0.00 57 1020.0
20260906015205 76 247 5.2 7.0 0.00 0.00 0.00 58 1020.0
20260906015104 77 247 5.2 6.1 0.00 0.00 0.00 58 1020.0
20260906014904 77 247 5.2 6.1 0.00 0.00 0.00 57 1019.8
20260906014804 77 247 4.3 6.1 0.00 0.00 0.00 57 1020.1
20260906014704 77 250 4.3 6.1 0.00 0.00 0.00 57 1019.9
20260906014604 77 250 4.3 6.1 0.00 0.00 0.00 57 1020.0
20260906014504 77 251 4.3 6.1 0.00 0.00 0.00 57 1019.9
20260906014404 77 252 4.3 6.1 0.00 0.00 0.00 56 1020.0
20260906014304 77 253 4.3 6.1 0.00 0.00 0.00 56 1019.9
20260906014204 77 253 3.5 6.1 0.00 0.00 0.00 56 1019.9
20260906014105 77 253 3.5 6.1 0.00 0.00 0.00 56 1019.9
20260906013804 76 252 3.5 4.3 0.00 0.00 0.00 57 1020.0
20260906013705 76 249 3.5 4.3 0.00 0.00 0.00 57 1019.8
20260906013604 76 249 3.5 4.3 0.00 0.00 0.00 57 1019.9
20260906013504 76 248 2.6 3.5 0.00 0.00 0.00 57 1019.9
20260906013404 76 245 3.5 3.5 0.00 0.00 0.00 56 1019.8
20260906013304 76 242 2.6 3.5 0.00 0.00 0.00 57 1019.9
20260906013204 76 239 2.6 3.5 0.00 0.00 0.00 56 1020.0
20260906013104 76 238 2.6 3.5 0.00 0.00 0.00 57 1019.8
20260906013005 76 236 2.6 3.5 0.00 0.00 0.00 57 1019.8
20260906012904 75 234 2.6 3.5 0.00 0.00 0.00 57 1019.9
20260906012803 75 233 1.7 3.5 0.00 0.00 0.00 58 1019.8
20260906012704 75 232 1.7 3.5 0.00 0.00 0.00 58 1019.8
20260906012604 75 230 1.7 3.5 0.00 0.00 0.00 57 1019.8
20260906012404 75 230 1.7 1.7 0.00 0.00 0.00 58 1019.8
20260906012306 75 230 1.7 1.7 0.00 0.00 0.00 58 1019.9
20260906012204 75 232 0.9 1.7 0.00 0.00 0.00 57 1020.0
20260906012104 75 235 0.9 1.7 0.00 0.00 0.00 57 1019.9
20260906012004 75 237 0.9 1.7 0.00 0.00 0.00 57 1019.9
20260906011704 75 235 0.9 1.7 0.00 0.00 0.00 57 1019.9
20260906011506 75 213 0.9 1.7 0.00 0.00 0.00 58 1020.0
20260906011404 75 199 0.9 1.7 0.00 0.00 0.00 57 1019.9
20260906011304 75 186 0.0 1.7 0.00 0.00 0.00 57 1019.8
20260906011204 75 181 0.9 1.7 0.00 0.00 0.00 57 1019.9
20260906011104 75 184 0.9 1.7 0.00 0.00 0.00 57 1020.0
20260906011004 76 184 0.9 1.7 0.00 0.00 0.00 56 1019.8
20260906010904 76 187 0.9 1.7 0.00 0.00 0.00 56 1019.8
20260906010804 76 198 0.9 2.6 0.00 0.00 0.00 55 1020.1
20260906010704 76 207 0.9 2.6 0.00 0.00 0.00 55 1020.0
20260906010605 76 211 0.9 2.6 0.00 0.00 0.00 55 1019.9
20260906010504 77 220 0.9 2.6 0.00 0.00 0.00 54 1019.8
20260906010404 77 225 0.9 2.6 0.00 0.00 0.00 54 1019.9
20260906010305 77 234 1.7 3.5 0.00 0.00 0.00 54 1019.7
20260906010204 77 244 1.7 3.5 0.00 0.00 0.00 53 1019.9
20260906010104 78 245 1.7 4.3 0.00 0.00 0.00 53 1019.7
20260906010005 78 244 2.6 4.3 0.00 0.00 0.00 53 1019.9
20260906005904 78 242 2.6 4.3 0.00 0.00 0.00 53 1019.7
20260906005805 78 247 2.6 4.3 0.00 0.00 0.00 53 1019.8
20260906005704 78 245 2.6 5.2 0.00 0.00 0.00 52 1019.7
20260906005604 78 246 3.5 5.2 0.00 0.00 0.00 52 1019.9
20260906005505 79 249 3.5 6.1 0.00 0.00 0.00 52 1019.7
20260906005405 79 249 4.3 6.1 0.00 0.00 0.00 51 1020.0
20260906005306 79 251 4.3 6.1 0.00 0.00 0.00 51 1019.9
20260906005205 79 250 5.2 7.0 0.00 0.00 0.00 52 1019.8
20260906005004 79 251 5.2 7.0 0.00 0.00 0.00 51 1019.8
20260906004804 79 250 5.2 7.0 0.00 0.00 0.00 52 1019.8
20260906004704 79 253 5.2 7.0 0.00 0.00 0.00 51 1020.0
20260906004604 79 255 5.2 7.0 0.00 0.00 0.00 51 1019.8
20260906004505 79 253 5.2 7.0 0.00 0.00 0.00 52 1019.8
20260906004404 79 254 5.2 7.0 0.00 0.00 0.00 51 1019.7
20260906004304 79 252 5.2 7.0 0.00 0.00 0.00 52 1019.7
20260906004104 78 251 5.2 6.1 0.00 0.00 0.00 51 1019.9
20260906004004 78 250 4.3 5.2 0.00 0.00 0.00 51 1019.8
20260906003903 78 250 4.3 5.2 0.00 0.00 0.00 51 1019.9
20260906003804 78 251 3.5 5.2 0.00 0.00 0.00 51 1019.8
20260906003604 78 242 2.6 5.2 0.00 0.00 0.00 52 1019.8
20260906003504 77 240 2.6 5.2 0.00 0.00 0.00 52 1019.8
20260906003404 77 235 2.6 5.2 0.00 0.00 0.00 52 1019.6
20260906003304 77 231 1.7 5.2 0.00 0.00 0.00 53 1019.9
20260906003104 77 229 0.9 2.6 0.00 0.00 0.00 52 1019.9
20260906003005 77 230 0.9 1.7 0.00 0.00 0.00 52 1019.7
20260906002904 77 233 0.9 1.7 0.00 0.00 0.00 52 1019.8
20260906002805 77 236 0.9 1.7 0.00 0.00 0.00 51 1020.0
20260906002604 77 242 0.9 2.6 0.00 0.00 0.00 51 1020.0
20260906002504 77 243 0.9 2.6 0.00 0.00 0.00 51 1019.9
20260906002404 77 246 0.9 2.6 0.00 0.00 0.00 51 1019.9
20260906002104 77 246 0.9 2.6 0.00 0.00 0.00 51 1019.8
20260906002003 77 245 0.9 2.6 0.00 0.00 0.00 51 1019.9
20260906001904 77 244 0.9 2.6 0.00 0.00 0.00 52 1019.7
20260906001804 77 243 0.9 2.6 0.00 0.00 0.00 52 1019.9
20260906001704 77 242 0.9 3.5 0.00 0.00 0.00 52 1019.8
20260906001504 77 245 1.7 3.5 0.00 0.00 0.00 52 1019.9
20260906001404 77 245 1.7 3.5 0.00 0.00 0.00 52 1019.9
20260906001304 77 246 1.7 3.5 0.00 0.00 0.00 53 1019.9
20260906001104 78 247 2.6 3.5 0.00 0.00 0.00 53 1019.7
20260906001004 78 248 2.6 3.5 0.00 0.00 0.00 53 1019.7
20260906000904 78 247 3.5 3.5 0.00 0.00 0.00 52 1019.8
20260906000804 78 247 3.5 3.5 0.00 0.00 0.00 52 1019.8
20260906000704 79 247 3.5 3.5 0.00 0.00 0.00 50 1019.8
20260906000604 79 247 3.5 3.5 0.00 0.00 0.00 50 1019.8
20260906000504 79 247 3.5 4.3 0.00 0.00 0.00 50 1020.0
20260906000404 79 245 4.3 4.3 0.00 0.00 0.00 50 1019.8
20260906000304 79 245 4.3 4.3 0.00 0.00 0.00 50 1019.8
20260906000204 79 245 4.3 5.2 0.00 0.00 0.00 50 1019.9
20260906000104 79 247 4.3 5.2 0.00 0.00 0.00 50 1019.8
20260906000004 79 247 4.3 5.2 0.00 0.00 0.00 50 1019.7
20260905235804 79 247 4.3 5.2 0.00 0.00 0.00 50 1019.7
20260905235604 79 247 4.3 5.2 0.00 0.00 0.00 50 1019.6
20260905235505 79 247 3.5 5.2 0.00 0.00 0.00 50 1019.9
20260905235404 79 249 3.5 5.2 0.00 0.00 0.00 51 1019.7
20260905235306 79 250 3.5 5.2 0.00 0.00 0.00 51 1020.0
20260905235205 79 250 3.5 5.2 0.00 0.00 0.00 51 1019.7
20260905235104 79 247 3.5 4.3 0.00 0.00 0.00 51 1019.7
20260905235004 79 247 3.5 4.3 0.00 0.00 0.00 51 1019.6
20260905234804 79 248 3.5 3.5 0.00 0.00 0.00 50 1019.6
20260905234704 79 248 3.5 3.5 0.00 0.00 0.00 50 1019.9
20260905234604 79 248 3.5 3.5 0.00 0.00 0.00 50 1019.9
20260905234506 79 248 2.6 3.5 0.00 0.00 0.00 50 1019.6
20260905234404 79 248 2.6 3.5 0.00 0.00 0.00 50 1019.7
20260905234304 79 248 2.6 3.5 0.00 0.00 0.00 50 1019.8
20260905234104 78 248 2.6 3.5 0.00 0.00 0.00 50 1019.8
20260905234004 78 248 2.6 3.5 0.00 0.00 0.00 50 1019.7
20260905233904 78 248 2.6 3.5 0.00 0.00 0.00 51 1019.9
20260905233704 79 248 2.6 2.6 0.00 0.00 0.00 51 1019.7
20260905233504 79 248 1.7 2.6 0.00 0.00 0.00 50 1019.9
20260905233405 79 248 1.7 2.6 0.00 0.00 0.00 50 1019.8
20260905233304 79 248 1.7 2.6 0.00 0.00 0.00 49 1019.9
20260905233004 79 248 1.7 2.6 0.00 0.00 0.00 49 1019.9
20260905232904 78 248 1.7 2.6 0.00 0.00 0.00 48 1019.8
20260905232804 78 248 1.7 2.6 0.00 0.00 0.00 49 1019.8
20260905232704 79 248 1.7 2.6 0.00 0.00 0.00 49 1019.7
20260905232604 79 248 1.7 2.6 0.00 0.00 0.00 49 1019.6
20260905232204 79 250 2.6 3.5 0.00 0.00 0.00 48 1019.6
20260905232104 79 251 2.6 3.5 0.00 0.00 0.00 48 1019.9
20260905232004 79 251 2.6 3.5 0.00 0.00 0.00 48 1019.6
20260905231904 79 251 2.6 3.5 0.00 0.00 0.00 48 1019.8
20260905231805 79 251 2.6 3.5 0.00 0.00 0.00 48 1019.7
20260905231604 79 252 2.6 3.5 0.00 0.00 0.00 49 1019.6
20260905231505 79 252 2.6 3.5 0.00 0.00 0.00 48 1019.7
20260905231304 79 252 2.6 3.5 0.00 0.00 0.00 48 1019.8
20260905231204 79 253 2.6 3.5 0.00 0.00 0.00 48 1019.7
20260905231104 79 253 1.7 3.5 0.00 0.00 0.00 48 1019.8
20260905231004 79 253 1.7 3.5 0.00 0.00 0.00 48 1019.8
20260905230903 79 254 1.7 3.5 0.00 0.00 0.00 49 1019.9
20260905230804 79 255 0.9 2.6 0.00 0.00 0.00 50 1020.0
20260905230704 79 257 0.9 2.6 0.00 0.00 0.00 52 1019.6
20260905230604 79 260 0.9 2.6 0.00 0.00 0.00 53 1019.9
20260905230504 79 270 0.0 1.7 0.00 0.00 0.00 55 1019.6
20260905230404 79 270 0.0 1.7 0.00 0.00 0.00 53 1019.7
20260905230304 79 270 0.0 1.7 0.00 0.00 0.00 54 1019.8
20260905230203 79 270 0.0 0.9 0.00 0.00 0.00 55 1019.7
20260905230104 79 0 0.0 0.0 0.00 0.00 0.00 56 1019.7
20260905230005 79 0 0.0 0.0 0.00 0.00 0.00 55 1020.0
20260905225804 79 270 0.0 0.9 0.00 0.00 0.00 54 1019.9
20260905225604 80 270 0.0 0.9 0.00 0.00 0.00 55 1019.8
20260905225504 80 270 0.0 0.9 0.00 0.00 0.00 55 1019.8
20260905225404 80 270 0.0 0.9 0.00 0.00 0.00 54 1019.7
20260905225305 80 270 0.0 1.7 0.00 0.00 0.00 54 1019.7
20260905225204 80 270 0.9 1.7 0.00 0.00 0.00 54 1019.9
20260905225104 80 270 0.9 1.7 0.00 0.00 0.00 53 1019.9
20260905225004 80 270 0.9 1.7 0.00 0.00 0.00 53 1019.7
20260905224904 81 270 0.9 1.7 0.00 0.00 0.00 53 1019.9
20260905224804 81 270 0.9 1.7 0.00 0.00 0.00 53 1019.8
20260905224705 81 270 0.9 1.7 0.00 0.00 0.00 53 1019.8
20260905224605 81 270 0.9 1.7 0.00 0.00 0.00 53 1019.6
20260905224504 81 270 1.7 1.7 0.00 0.00 0.00 53 1019.7
20260905224403 81 270 1.7 1.7 0.00 0.00 0.00 53 1020.0
20260905224304 81 270 1.7 1.7 0.00 0.00 0.00 53 1019.7
20260905224204 81 270 1.7 1.7 0.00 0.00 0.00 53 1019.8
20260905224104 80 270 1.7 1.7 0.00 0.00 0.00 52 1019.7
20260905224004 80 268 1.7 1.7 0.00 0.00 0.00 52 1019.7
20260905223904 80 267 0.9 1.7 0.00 0.00 0.00 52 1019.7
20260905223804 80 265 0.9 1.7 0.00 0.00 0.00 52 1019.6
20260905223704 80 264 0.9 1.7 0.00 0.00 0.00 52 1019.6
20260905223604 80 263 0.9 1.7 0.00 0.00 0.00 52 1019.7
20260905223504 80 262 0.9 1.7 0.00 0.00 0.00 53 1019.5
20260905223404 80 261 0.9 1.7 0.00 0.00 0.00 53 1019.7
20260905223304 80 258 0.9 1.7 0.00 0.00 0.00 54 1019.8
20260905223204 80 254 0.9 1.7 0.00 0.00 0.00 55 1019.7
20260905223104 80 251 0.9 1.7 0.00 0.00 0.00 55 1019.6
20260905223005 80 248 0.9 1.7 0.00 0.00 0.00 55 1019.6
20260905222904 80 248 0.9 1.7 0.00 0.00 0.00 55 1019.8
20260905222803 80 248 0.9 1.7 0.00 0.00 0.00 54 1019.9
20260905222704 80 254 0.9 1.7 0.00 0.00 0.00 54 1019.5
20260905222604 80 257 0.9 1.7 0.00 0.00 0.00 54 1019.6
20260905222504 80 258 0.9 1.7 0.00 0.00 0.00 53 1019.9
20260905222404 80 258 0.9 1.7 0.00 0.00 0.00 53 1019.9
20260905222306 80 259 0.9 1.7 0.00 0.00 0.00 52 1019.7
20260905222104 80 260 0.9 1.7 0.00 0.00 0.00 52 1019.7
20260905222004 80 262 0.9 1.7 0.00 0.00 0.00 52 1019.5
20260905221803 80 269 0.9 1.7 0.00 0.00 0.00 51 1019.7
20260905221705 80 270 0.0 1.7 0.00 0.00 0.00 51 1019.7
20260905221605 80 270 0.0 1.7 0.00 0.00 0.00 50 1019.6
20260905221506 80 0 0.0 0.0 0.00 0.00 0.00 49 1019.7
20260905221404 80 270 0.0 1.7 0.00 0.00 0.00 51 1019.6
20260905221304 80 270 0.0 1.7 0.00 0.00 0.00 54 1019.6
20260905221204 80 270 0.0 1.7 0.00 0.00 0.00 53 1019.6
20260905221104 80 270 0.0 1.7 0.00 0.00 0.00 54 1019.5
20260905221004 80 270 0.0 1.7 0.00 0.00 0.00 54 1019.6
20260905220904 80 270 0.0 1.7 0.00 0.00 0.00 55 1019.6
20260905220804 80 270 0.0 1.7 0.00 0.00 0.00 55 1019.5
20260905220705 80 270 0.0 1.7 0.00 0.00 0.00 55 1019.5
20260905220604 80 270 0.0 1.7 0.00 0.00 0.00 54 1019.7
20260905220404 80 270 0.9 1.7 0.00 0.00 0.00 54 1019.6
20260905220304 80 270 0.9 1.7 0.00 0.00 0.00 54 1019.5
20260905220204 80 270 0.9 1.7 0.00 0.00 0.00 54 1019.5
20260905220104 80 270 0.9 1.7 0.00 0.00 0.00 55 1019.6
20260905220008 80 270 0.9 1.7 0.00 0.00 0.00 54 1019.3
20260905215805 80 270 0.9 1.7 0.00 0.00 0.00 54 1019.7
20260905215703 80 270 0.9 1.7 0.00 0.00 0.00 54 1019.5
20260905215604 80 270 0.9 1.7 0.00 0.00 0.00 53 1019.5
20260905215504 80 270 0.9 1.7 0.00 0.00 0.00 53 1019.6
20260905215306 80 270 0.0 1.7 0.00 0.00 0.00 51 1019.6
20260905215204 80 270 0.0 1.7 0.00 0.00 0.00 51 1019.4
20260905215004 80 0 0.0 0.0 0.00 0.00 0.00 50 1019.4
20260905214904 81 0 0.0 0.0 0.00 0.00 0.00 49 1019.5
20260905214804 81 0 0.0 0.0 0.00 0.00 0.00 49 1019.5
20260905214704 81 0 0.0 0.0 0.00 0.00 0.00 49 1019.6
20260905214604 81 0 0.0 0.0 0.00 0.00 0.00 49 1019.4
20260905214505 81 0 0.0 0.0 0.00 0.00 0.00 49 1019.4
20260905214404 81 0 0.0 0.0 0.00 0.00 0.00 49 1019.4
20260905214304 81 0 0.0 0.0 0.00 0.00 0.00 48 1019.3
20260905214004 81 0 0.0 0.0 0.00 0.00 0.00 48 1019.5
20260905213904 81 0 0.0 0.0 0.00 0.00 0.00 48 1019.4
20260905213805 81 0 0.0 0.0 0.00 0.00 0.00 48 1019.3
20260905213704 81 0 0.0 0.0 0.00 0.00 0.00 47 1019.3
20260905213504 81 0 0.0 0.0 0.00 0.00 0.00 47 1019.5
20260905213404 81 0 0.0 0.0 0.00 0.00 0.00 47 1019.3
20260905213304 81 0 0.0 0.0 0.00 0.00 0.00 46 1019.4
20260905213204 81 0 0.0 0.0 0.00 0.00 0.00 46 1019.4
20260905213103 81 0 0.0 0.0 0.00 0.00 0.00 46 1019.3
20260905213004 81 0 0.0 0.0 0.00 0.00 0.00 46 1019.3
20260905212904 81 0 0.0 0.0 0.00 0.00 0.00 47 1019.3
20260905212803 81 0 0.0 0.0 0.00 0.00 0.00 47 1019.2
20260905212704 81 0 0.0 0.0 0.00 0.00 0.00 47 1019.4
20260905212504 81 0 0.0 0.0 0.00 0.00 0.00 45 1019.4
20260905212404 81 0 0.0 0.0 0.00 0.00 0.00 45 1019.6
20260905212306 81 0 0.0 0.0 0.00 0.00 0.00 45 1019.4
20260905212204 81 0 0.0 0.0 0.00 0.00 0.00 45 1019.4
20260905212104 81 270 0.0 1.7 0.00 0.00 0.00 45 1019.4
20260905212004 81 270 0.0 1.7 0.00 0.00 0.00 45 1019.4
20260905211904 81 270 0.0 1.7 0.00 0.00 0.00 45 1019.2
20260905211804 82 270 0.9 1.7 0.00 0.00 0.00 45 1019.4
20260905211705 82 270 0.9 1.7 0.00 0.00 0.00 45 1019.3
20260905211604 82 270 0.9 1.7 0.00 0.00 0.00 45 1019.4
20260905211504 81 270 0.9 1.7 0.00 0.00 0.00 45 1019.4
20260905211304 81 270 0.9 1.7 0.00 0.00 0.00 46 1019.4
20260905211104 81 270 0.9 1.7 0.00 0.00 0.00 45 1019.2
20260905211004 81 270 0.9 1.7 0.00 0.00 0.00 44 1019.5
20260905210804 81 270 0.9 1.7 0.00 0.00 0.00 44 1019.2
20260905210703 81 270 0.9 1.7 0.00 0.00 0.00 44 1019.4
20260905210604 81 270 0.9 1.7 0.00 0.00 0.00 44 1019.2
20260905210504 81 270 0.9 1.7 0.00 0.00 0.00 44 1019.3
20260905210404 81 270 0.9 1.7 0.00 0.00 0.00 44 1019.4
20260905210303 81 270 0.9 1.7 0.00 0.00 0.00 44 1019.2
20260905210204 81 270 0.9 1.7 0.00 0.00 0.00 44 1019.2
20260905210104 81 270 0.9 1.7 0.00 0.00 0.00 44 1019.3
20260905210004 81 270 0.9 1.7 0.00 0.00 0.00 44 1019.2
20260905205904 81 270 0.9 1.7 0.00 0.00 0.00 44 1019.3
20260905205804 81 270 0.9 1.7 0.00 0.00 0.00 44 1019.3
20260905205704 81 270 0.9 1.7 0.00 0.00 0.00 45 1019.2
20260905205504 81 270 0.0 1.7 0.00 0.00 0.00 45 1019.2
20260905205404 81 270 0.0 1.7 0.00 0.00 0.00 44 1019.4
20260905205306 81 270 0.0 1.7 0.00 0.00 0.00 45 1019.2
20260905205203 81 270 0.0 1.7 0.00 0.00 0.00 45 1019.5
20260905205104 81 270 0.0 1.7 0.00 0.00 0.00 46 1019.2
20260905205004 81 270 0.0 0.9 0.00 0.00 0.00 46 1019.5
20260905204904 81 270 0.0 0.9 0.00 0.00 0.00 46 1019.3
20260905204804 82 270 0.0 0.9 0.00 0.00 0.00 46 1019.2
20260905204703 82 270 0.0 1.7 0.00 0.00 0.00 45 1019.3
20260905204604 82 270 0.0 1.7 0.00 0.00 0.00 45 1019.2
20260905204505 82 270 0.9 1.7 0.00 0.00 0.00 45 1019.2
20260905204404 82 270 0.9 1.7 0.00 0.00 0.00 45 1019.2
20260905204304 82 270 0.9 1.7 0.00 0.00 0.00 46 1019.2
20260905204203 82 270 0.9 1.7 0.00 0.00 0.00 45 1019.4
20260905204104 81 270 0.9 1.7 0.00 0.00 0.00 45 1019.1
20260905204004 81 270 0.9 1.7 0.00 0.00 0.00 45 1019.2
20260905203904 81 270 1.7 1.7 0.00 0.00 0.00 46 1019.2
20260905203803 81 270 1.7 1.7 0.00 0.00 0.00 46 1019.3
20260905203704 81 270 1.7 1.7 0.00 0.00 0.00 45 1019.2
20260905203604 81 270 1.7 1.7 0.00 0.00 0.00 45 1019.3
20260905203504 81 270 0.9 1.7 0.00 0.00 0.00 45 1019.2
20260905203404 81 270 0.9 1.7 0.00 0.00 0.00 45 1019.3
20260905203304 81 270 0.9 1.7 0.00 0.00 0.00 45 1019.3
20260905203204 81 270 0.9 1.7 0.00 0.00 0.00 45 1019.3
20260905203104 82 270 0.9 1.7 0.00 0.00 0.00 45 1019.3
20260905203005 82 270 0.9 1.7 0.00 0.00 0.00 45 1019.2
20260905202904 82 270 0.9 1.7 0.00 0.00 0.00 45 1019.3
20260905202803 82 274 0.9 1.7 0.00 0.00 0.00 45 1019.5
20260905202604 82 282 0.9 1.7 0.00 0.00 0.00 44 1019.4
20260905202504 82 283 0.9 1.7 0.00 0.00 0.00 44 1019.3
20260905202404 81 283 0.9 1.7 0.00 0.00 0.00 44 1019.2
20260905202306 81 284 0.9 1.7 0.00 0.00 0.00 45 1019.3
20260905202203 81 290 0.9 1.7 0.00 0.00 0.00 45 1019.3
20260905202105 81 303 0.9 1.7 0.00 0.00 0.00 45 1019.2
20260905202004 81 318 0.9 1.7 0.00 0.00 0.00 45 1019.3
20260905201903 81 330 0.9 1.7 0.00 0.00 0.00 45 1019.2
20260905201804 81 347 0.0 1.7 0.00 0.00 0.00 45 1019.3
20260905201704 81 1 0.0 1.7 0.00 0.00 0.00 45 1019.2
20260905201605 81 1 0.0 1.7 0.00 0.00 0.00 45 1019.4
20260905201505 81 1 0.0 1.7 0.00 0.00 0.00 45 1019.3
20260905201404 81 1 0.0 1.7 0.00 0.00 0.00 46 1019.3
20260905201304 82 1 0.0 1.7 0.00 0.00 0.00 46 1019.3
20260905201204 82 1 0.0 1.7 0.00 0.00 0.00 46 1019.0
20260905201104 82 1 0.0 1.7 0.00 0.00 0.00 45 1019.3
20260905201004 82 0 0.0 0.0 0.00 0.00 0.00 45 1019.1
20260905200904 82 0 0.0 0.0 0.00 0.00 0.00 44 1019.1
20260905200704 82 0 0.0 0.0 0.00 0.00 0.00 44 1019.1
20260905200604 83 0 0.0 0.0 0.00 0.00 0.00 43 1019.4
20260905200504 83 0 0.0 0.0 0.00 0.00 0.00 43 1019.1
20260905200304 83 0 0.0 0.0 0.00 0.00 0.00 42 1019.1
20260905200104 83 0 0.0 0.0 0.00 0.00 0.00 42 1019.0
20260905200005 83 270 0.0 0.9 0.00 0.00 0.00 42 1019.2
20260905195904 83 270 0.0 1.7 0.00 0.00 0.00 43 1019.0
20260905195504 83 276 1.7 3.5 0.00 0.00 0.00 42 1019.1
20260905195403 83 275 1.7 3.5 0.00 0.00 0.00 42 1019.1
20260905195306 83 274 1.7 3.5 0.00 0.00 0.00 42 1019.1
20260905195205 83 274 2.6 3.5 0.00 0.00 0.00 43 1019.1
20260905195104 82 273 2.6 3.5 0.00 0.00 0.00 43 1019.0
20260905195004 82 275 2.6 3.5 0.00 0.00 0.00 42 1019.0
20260905194904 82 276 2.6 3.5 0.00 0.00 0.00 44 1019.2
20260905194803 82 274 2.6 3.5 0.00 0.00 0.00 44 1018.9
20260905194604 82 274 1.7 3.5 0.00 0.00 0.00 45 1019.1
20260905194304 83 276 0.9 3.5 0.00 0.00 0.00 44 1019.1
20260905194204 83 280 0.9 3.5 0.00 0.00 0.00 44 1019.0
20260905194004 83 292 0.0 1.7 0.00 0.00 0.00 43 1019.2
20260905193904 83 0 0.0 0.0 0.00 0.00 0.00 43 1019.0
20260905193803 83 94 0.0 2.6 0.00 0.00 0.00 43 1019.3
20260905193704 83 105 0.9 2.6 0.00 0.00 0.00 42 1019.2
20260905193604 83 116 0.9 2.6 0.00 0.00 0.00 42 1019.1
20260905193504 83 121 0.9 2.6 0.00 0.00 0.00 42 1019.1
20260905193403 83 123 1.7 2.6 0.00 0.00 0.00 42 1019.0
20260905193204 84 119 1.7 3.5 0.00 0.00 0.00 42 1019.1
20260905193104 84 117 2.6 4.3 0.00 0.00 0.00 42 1018.9
20260905193004 84 117 2.6 5.2 0.00 0.00 0.00 42 1019.0
20260905192904 84 116 3.5 5.2 0.00 0.00 0.00 42 1019.0
20260905192804 84 117 3.5 5.2 0.00 0.00 0.00 41 1019.0
20260905192703 84 119 3.5 5.2 0.00 0.00 0.00 42 1019.0
20260905192604 84 116 4.3 5.2 0.00 0.00 0.00 42 1018.9
20260905192403 84 116 4.3 6.1 0.00 0.00 0.00 41 1018.9
20260905192306 84 113 5.2 7.0 0.00 0.00 0.00 41 1018.8
20260905192103 84 115 5.2 7.0 0.00 0.00 0.00 42 1018.9
20260905191804 84 113 5.2 7.0 0.00 0.00 0.00 41 1019.0
20260905191703 84 111 5.2 7.0 0.00 0.00 0.00 41 1018.8
20260905191604 84 111 5.2 7.0 0.00 0.00 0.00 41 1018.8
20260905191505 84 112 5.2 7.0 0.00 0.00 0.00 42 1018.7
20260905191404 84 109 5.2 7.0 0.00 0.00 0.00 42 1018.6
20260905191204 84 108 6.1 8.7 0.00 0.00 0.00 43 1018.7
20260905191104 84 108 6.1 8.7 0.00 0.00 0.00 43 1018.5
20260905191003 84 110 6.1 8.7 0.00 0.00 0.00 43 1018.5
20260905190904 84 111 7.0 8.7 0.00 0.00 0.00 43 1018.8
20260905190803 84 113 7.0 8.7 0.00 0.00 0.00 43 1018.7
20260905190704 84 113 7.0 8.7 0.00 0.00 0.00 43 1018.8
20260905190604 84 113 7.0 8.7 0.00 0.00 0.00 43 1018.6
20260905190503 84 113 7.0 8.7 0.00 0.00 0.00 43 1018.6
20260905190404 84 112 7.0 8.7 0.00 0.00 0.00 43 1018.5
20260905190304 84 112 7.0 8.7 0.00 0.00 0.00 43 1018.8
20260905190204 84 113 7.0 8.7 0.00 0.00 0.00 43 1018.7
20260905190104 84 113 7.0 7.8 0.00 0.00 0.00 43 1018.5
20260905190004 84 113 7.0 7.8 0.00 0.00 0.00 43 1018.6
20260905185903 84 112 7.0 7.0 0.00 0.00 0.00 44 1018.7
20260905185804 84 110 7.0 7.0 0.00 0.00 0.00 44 1018.7
20260905185704 84 109 7.0 7.0 0.00 0.00 0.00 44 1018.6
20260905185603 84 108 7.0 7.8 0.00 0.00 0.00 44 1018.7
20260905185504 84 111 7.0 7.8 0.00 0.00 0.00 45 1018.7
20260905185404 84 112 7.0 7.8 0.00 0.00 0.00 45 1018.7
20260905185306 84 113 7.0 7.8 0.00 0.00 0.00 44 1018.7
20260905185204 84 114 7.0 7.8 0.00 0.00 0.00 45 1018.6
20260905185103 84 115 7.0 7.8 0.00 0.00 0.00 45 1018.4
20260905185004 84 113 7.0 7.8 0.00 0.00 0.00 45 1018.5
20260905184905 84 113 7.0 7.8 0.00 0.00 0.00 46 1018.6
20260905184803 84 115 7.0 7.8 0.00 0.00 0.00 46 1018.5
20260905184704 84 115 7.0 7.8 0.00 0.00 0.00 46 1018.5
20260905184604 84 116 7.0 7.8 0.00 0.00 0.00 46 1018.5
20260905184403 84 113 7.0 7.0 0.00 0.00 0.00 46 1018.4
20260905184304 84 111 7.0 7.0 0.00 0.00 0.00 46 1018.5
20260905184205 84 109 6.1 7.0 0.00 0.00 0.00 46 1018.5
20260905184103 84 108 6.1 7.0 0.00 0.00 0.00 46 1018.6
20260905184004 84 107 6.1 7.0 0.00 0.00 0.00 46 1018.4
20260905183804 84 105 6.1 7.0 0.00 0.00 0.00 46 1018.5
20260905183704 84 106 6.1 7.0 0.00 0.00 0.00 46 1018.4
20260905183603 84 106 6.1 7.0 0.00 0.00 0.00 45 1018.5
20260905183404 84 107 5.2 7.0 0.00 0.00 0.00 45 1018.4
20260905183304 84 109 5.2 6.1 0.00 0.00 0.00 45 1018.4
20260905183204 84 109 5.2 6.1 0.00 0.00 0.00 46 1018.4
20260905183103 84 110 5.2 6.1 0.00 0.00 0.00 46 1018.3
20260905183004 84 113 5.2 6.1 0.00 0.00 0.00 46 1018.6
20260905182905 84 113 5.2 6.1 0.00 0.00 0.00 46 1018.4
20260905182804 84 113 4.3 6.1 0.00 0.00 0.00 45 1018.4
20260905182703 84 109 4.3 5.2 0.00 0.00 0.00 46 1018.4
20260905182604 84 109 4.3 5.2 0.00 0.00 0.00 46 1018.4
20260905182305 84 108 4.3 5.2 0.00 0.00 0.00 46 1018.4
20260905182204 84 108 4.3 5.2 0.00 0.00 0.00 45 1018.5
20260905182104 84 107 4.3 5.2 0.00 0.00 0.00 45 1018.4
20260905182004 84 104 4.3 5.2 0.00 0.00 0.00 46 1018.3
20260905181904 84 104 4.3 5.2 0.00 0.00 0.00 46 1018.3
20260905181805 84 104 4.3 5.2 0.00 0.00 0.00 46 1018.3
20260905181705 84 106 5.2 6.1 0.00 0.00 0.00 45 1018.2
20260905181604 84 105 5.2 6.1 0.00 0.00 0.00 46 1018.3
20260905181504 84 105 5.2 6.1 0.00 0.00 0.00 46 1018.3
20260905181403 84 104 5.2 6.1 0.00 0.00 0.00 45 1018.5
20260905181304 84 102 5.2 6.1 0.00 0.00 0.00 45 1018.2
20260905181204 84 101 5.2 6.1 0.00 0.00 0.00 45 1018.2
20260905181004 84 102 5.2 6.1 0.00 0.00 0.00 45 1018.4
20260905180904 84 101 5.2 6.1 0.00 0.00 0.00 45 1018.2
20260905180804 84 100 5.2 6.1 0.00 0.00 0.00 45 1018.3
20260905180604 85 99 5.2 6.1 0.00 0.00 0.00 45 1018.2
20260905180504 85 98 5.2 6.1 0.00 0.00 0.00 45 1018.1
20260905180403 85 99 5.2 6.1 0.00 0.00 0.00 45 1018.0
20260905180204 85 97 5.2 6.1 0.00 0.00 0.00 45 1018.2
20260905180103 85 95 5.2 6.1 0.00 0.00 0.00 45 1018.0
20260905180005 85 95 5.2 6.1 0.00 0.00 0.00 45 1018.1
20260905175904 85 95 5.2 6.1 0.00 0.00 0.00 44 1018.3
20260905175803 85 95 5.2 6.1 0.00 0.00 0.00 44 1018.2
20260905175704 85 93 5.2 6.1 0.00 0.00 0.00 44 1018.2
20260905175604 85 93 5.2 6.1 0.00 0.00 0.00 44 1018.3
20260905175504 85 92 5.2 6.1 0.00 0.00 0.00 44 1018.3
20260905175404 85 91 5.2 5.2 0.00 0.00 0.00 44 1018.0
20260905175306 85 90 5.2 6.1 0.00 0.00 0.00 44 1018.3
20260905175204 85 92 5.2 6.1 0.00 0.00 0.00 43 1018.2
20260905175003 85 92 5.2 6.1 0.00 0.00 0.00 43 1018.0
20260905174604 85 93 5.2 6.1 0.00 0.00 0.00 42 1018.2
20260905174505 85 94 5.2 6.1 0.00 0.00 0.00 42 1018.1
20260905174404 85 93 5.2 6.1 0.00 0.00 0.00 42 1018.2
20260905174303 85 95 4.3 6.1 0.00 0.00 0.00 42 1018.1
20260905174003 85 89 4.3 6.1 0.00 0.00 0.00 42 1017.8
20260905173904 85 87 3.5 6.1 0.00 0.00 0.00 41 1017.8
20260905173804 85 85 3.5 6.1 0.00 0.00 0.00 41 1018.1
20260905173703 85 85 3.5 5.2 0.00 0.00 0.00 41 1018.0
20260905173403 85 87 4.3 7.0 0.00 0.00 0.00 41 1017.8
20260905173304 85 90 5.2 7.0 0.00 0.00 0.00 41 1018.0
20260905173204 85 91 5.2 8.7 0.00 0.00 0.00 41 1018.1
20260905173103 85 92 5.2 8.7 0.00 0.00 0.00 41 1018.0
20260905173004 85 94 6.1 8.7 0.00 0.00 0.00 41 1017.6
20260905172905 85 96 7.0 8.7 0.00 0.00 0.00 41 1017.8
20260905172704 85 98 7.0 8.7 0.00 0.00 0.00 41 1017.9
20260905172504 86 98 7.8 8.7 0.00 0.00 0.00 40 1017.8
20260905172404 86 98 7.8 8.7 0.00 0.00 0.00 40 1017.7
20260905172305 86 96 7.8 8.7 0.00 0.00 0.00 40 1017.8
20260905172204 86 94 7.0 8.7 0.00 0.00 0.00 40 1017.8
20260905172104 85 94 7.0 8.7 0.00 0.00 0.00 39 1017.7
20260905171904 85 94 7.0 8.7 0.00 0.00 0.00 40 1017.6
20260905171804 85 89 7.0 8.7 0.00 0.00 0.00 40 1017.7
20260905171703 85 88 7.0 8.7 0.00 0.00 0.00 40 1017.7
20260905171504 86 90 7.0 8.7 0.00 0.00 0.00 40 1017.9
20260905171404 86 93 7.0 8.7 0.00 0.00 0.00 40 1017.7
20260905171304 86 95 7.0 8.7 0.00 0.00 0.00 40 1017.9
20260905171204 86 96 7.8 8.7 0.00 0.00 0.00 39 1017.8
20260905171104 86 95 7.8 8.7 0.00 0.00 0.00 39 1017.8
20260905171004 86 97 7.8 8.7 0.00 0.00 0.00 39 1017.9
20260905170905 86 94 7.8 8.7 0.00 0.00 0.00 40 1017.9
20260905170804 86 101 7.8 9.6 0.00 0.00 0.00 40 1017.8
20260905170703 86 101 8.7 10.4 0.00 0.00 0.00 40 1017.9
20260905170604 86 101 8.7 10.4 0.00 0.00 0.00 39 1017.7
20260905170403 86 98 8.7 10.4 0.00 0.00 0.00 39 1017.8
20260905170304 86 97 8.7 10.4 0.00 0.00 0.00 39 1017.8
20260905170204 86 96 9.6 11.3 0.00 0.00 0.00 39 1017.6
20260905170004 86 97 9.6 11.3 0.00 0.00 0.00 39 1017.5
20260905165804 86 98 10.4 11.3 0.00 0.00 0.00 38 1018.0
20260905165704 86 99 9.6 11.3 0.00 0.00 0.00 38 1017.8
20260905165603 86 103 9.6 11.3 0.00 0.00 0.00 38 1017.6
20260905165504 86 105 9.6 11.3 0.00 0.00 0.00 38 1017.7
20260905165404 86 105 9.6 11.3 0.00 0.00 0.00 37 1017.6
20260905165306 86 107 9.6 11.3 0.00 0.00 0.00 37 1017.5
20260905165204 86 111 8.7 11.3 0.00 0.00 0.00 37 1017.6
20260905165104 87 111 8.7 11.3 0.00 0.00 0.00 37 1017.9
20260905165003 87 112 8.7 10.4 0.00 0.00 0.00 37 1017.7
20260905164904 87 111 7.8 10.4 0.00 0.00 0.00 37 1017.6
20260905164804 87 111 7.8 9.6 0.00 0.00 0.00 37 1017.7
20260905164703 87 110 7.8 9.6 0.00 0.00 0.00 37 1017.6
20260905164604 87 108 7.8 9.6 0.00 0.00 0.00 37 1017.8
20260905164504 87 108 7.0 9.6 0.00 0.00 0.00 37 1017.7
20260905164404 87 107 7.0 9.6 0.00 0.00 0.00 37 1017.7
20260905164303 87 105 7.0 9.6 0.00 0.00 0.00 37 1017.6
20260905164204 87 102 7.0 8.7 0.00 0.00 0.00 38 1017.7
20260905164104 87 100 7.0 8.7 0.00 0.00 0.00 38 1017.8
20260905164003 87 106 7.0 8.7 0.00 0.00 0.00 38 1017.7
20260905163904 87 107 7.0 8.7 0.00 0.00 0.00 38 1017.8
20260905163803 87 104 7.0 9.6 0.00 0.00 0.00 38 1017.6
20260905163704 87 103 7.8 9.6 0.00 0.00 0.00 38 1017.7
20260905163604 87 100 7.8 9.6 0.00 0.00 0.00 38 1017.9
20260905163503 87 100 7.8 9.6 0.00 0.00 0.00 38 1017.8
20260905163404 87 101 7.8 9.6 0.00 0.00 0.00 38 1017.6
20260905163203 87 108 8.7 10.4 0.00 0.00 0.00 37 1017.7
20260905163104 87 110 9.6 12.2 0.00 0.00 0.00 38 1017.7
20260905162903 87 106 9.6 12.2 0.00 0.00 0.00 38 1017.7
20260905162804 87 108 9.6 12.2 0.00 0.00 0.00 38 1017.6
20260905162705 87 111 10.4 12.2 0.00 0.00 0.00 38 1017.7
20260905162504 87 115 10.4 13.0 0.00 0.00 0.00 38 1017.7
20260905162404 87 115 10.4 13.0 0.00 0.00 0.00 38 1017.6
20260905162305 87 111 10.4 13.0 0.00 0.00 0.00 37 1017.6
20260905162204 87 107 10.4 13.0 0.00 0.00 0.00 37 1017.5
20260905162103 87 107 10.4 13.0 0.00 0.00 0.00 36 1017.6
20260905161905 87 106 10.4 13.0 0.00 0.00 0.00 35 1017.5
20260905161803 87 107 10.4 13.0 0.00 0.00 0.00 35 1017.6
20260905161604 87 104 10.4 13.0 0.00 0.00 0.00 33 1017.6
20260905161504 87 107 9.6 11.3 0.00 0.00 0.00 34 1017.5
20260905161304 87 111 9.6 11.3 0.00 0.00 0.00 33 1017.6
20260905161104 87 110 9.6 11.3 0.00 0.00 0.00 35 1017.5
20260905161003 88 108 9.6 11.3 0.00 0.00 0.00 35 1017.7
20260905160904 88 108 10.4 11.3 0.00 0.00 0.00 35 1017.5
20260905160604 88 105 9.6 11.3 0.00 0.00 0.00 34 1017.7
20260905160504 88 102 9.6 11.3 0.00 0.00 0.00 34 1017.4
20260905160403 88 99 9.6 11.3 0.00 0.00 0.00 34 1017.5
20260905160304 88 100 9.6 11.3 0.00 0.00 0.00 34 1017.6
20260905160203 88 102 9.6 10.4 0.00 0.00 0.00 33 1017.5
20260905160004 88 103 9.6 13.0 0.00 0.00 0.00 34 1017.4
20260905155804 88 103 9.6 13.0 0.00 0.00 0.00 34 1017.5
20260905155703 88 105 9.6 13.0 0.00 0.00 0.00 33 1017.3
20260905155604 88 105 10.4 13.0 0.00 0.00 0.00 33 1017.4
20260905155504 88 104 10.4 13.0 0.00 0.00 0.00 33 1017.4
20260905155403 88 105 10.4 13.0 0.00 0.00 0.00 33 1017.4
20260905155306 88 107 10.4 13.0 0.00 0.00 0.00 33 1017.3
20260905155204 88 104 10.4 13.0 0.00 0.00 0.00 33 1017.4
20260905155103 88 102 10.4 13.0 0.00 0.00 0.00 33 1017.3
20260905155005 88 101 9.6 13.0 0.00 0.00 0.00 32 1017.3
20260905154904 88 103 9.6 11.3 0.00 0.00 0.00 33 1017.3
20260905154604 88 101 9.6 11.3 0.00 0.00 0.00 33 1017.3
20260905154504 88 100 9.6 11.3 0.00 0.00 0.00 33 1017.3
20260905154403 88 102 9.6 11.3 0.00 0.00 0.00 33 1017.4
20260905154304 88 99 9.6 10.4 0.00 0.00 0.00 33 1017.2
20260905154203 88 100 9.6 10.4 0.00 0.00 0.00 33 1017.3
20260905154103 88 104 9.6 12.2 0.00 0.00 0.00 34 1017.4
20260905154004 88 104 9.6 12.2 0.00 0.00 0.00 34 1017.2
20260905153903 88 102 9.6 13.0 0.00 0.00 0.00 34 1017.5
20260905153804 88 98 10.4 13.0 0.00 0.00 0.00 34 1017.5
20260905153705 88 99 10.4 13.0 0.00 0.00 0.00 33 1017.4
20260905153503 88 103 10.4 13.0 0.00 0.00 0.00 34 1017.3
20260905153403 88 104 10.4 13.0 0.00 0.00 0.00 34 1017.5
20260905153304 88 104 10.4 13.0 0.00 0.00 0.00 34 1017.4
20260905153204 88 106 9.6 13.0 0.00 0.00 0.00 35 1017.4
20260905153103 88 104 9.6 13.0 0.00 0.00 0.00 35 1017.5
20260905152904 88 106 9.6 11.3 0.00 0.00 0.00 34 1017.4
20260905152803 88 108 9.6 11.3 0.00 0.00 0.00 34 1017.4
20260905152704 88 110 9.6 10.4 0.00 0.00 0.00 34 1017.4
20260905152605 88 109 8.7 10.4 0.00 0.00 0.00 34 1017.4
20260905152404 88 103 8.7 10.4 0.00 0.00 0.00 34 1017.4
20260905152104 88 102 8.7 10.4 0.00 0.00 0.00 34 1017.4
20260905152005 88 101 7.8 10.4 0.00 0.00 0.00 34 1017.3
20260905151904 89 101 8.7 12.2 0.00 0.00 0.00 35 1017.4
20260905151704 89 101 8.7 12.2 0.00 0.00 0.00 35 1017.3
20260905151504 88 104 9.6 12.2 0.00 0.00 0.00 35 1017.3
20260905151304 88 107 9.6 12.2 0.00 0.00 0.00 36 1017.5
20260905151203 88 107 9.6 12.2 0.00 0.00 0.00 36 1017.5
20260905151104 88 104 10.4 13.0 0.00 0.00 0.00 36 1017.4
20260905151004 88 102 10.4 13.0 0.00 0.00 0.00 36 1017.4
20260905150903 88 102 10.4 13.0 0.00 0.00 0.00 35 1017.6
20260905150803 88 101 9.6 13.0 0.00 0.00 0.00 37 1017.4
20260905150704 88 102 9.6 13.0 0.00 0.00 0.00 37 1017.3
20260905150603 88 101 9.6 13.0 0.00 0.00 0.00 37 1017.3
20260905150403 88 97 8.7 13.0 0.00 0.00 0.00 38 1017.6
20260905150204 89 95 8.7 13.0 0.00 0.00 0.00 38 1017.4
20260905150004 89 103 8.7 10.4 0.00 0.00 0.00 38 1017.4
20260905145903 89 102 8.7 13.0 0.00 0.00 0.00 38 1017.5
20260905145804 89 104 8.7 13.0 0.00 0.00 0.00 38 1017.4
20260905145704 89 104 8.7 13.0 0.00 0.00 0.00 37 1017.4
20260905145604 88 107 9.6 13.0 0.00 0.00 0.00 37 1017.4
20260905145503 88 108 9.6 13.0 0.00 0.00 0.00 37 1017.2
20260905145404 88 108 9.6 13.0 0.00 0.00 0.00 37 1017.5
20260905145306 89 106 9.6 13.0 0.00 0.00 0.00 37 1017.3
20260905145203 89 107 9.6 13.0 0.00 0.00 0.00 37 1017.3
20260905145104 89 109 9.6 13.0 0.00 0.00 0.00 36 1017.3
20260905145003 89 106 9.6 13.0 0.00 0.00 0.00 37 1017.2
20260905144804 89 103 8.7 10.4 0.00 0.00 0.00 36 1017.5
20260905144704 89 99 8.7 10.4 0.00 0.00 0.00 36 1017.4
20260905144504 89 100 8.7 10.4 0.00 0.00 0.00 36 1017.4
20260905144403 89 102 8.7 10.4 0.00 0.00 0.00 36 1017.4
20260905144305 89 106 8.7 10.4 0.00 0.00 0.00 35 1017.4
20260905144204 89 106 8.7 10.4 0.00 0.00 0.00 35 1017.3
20260905144003 89 105 8.7 10.4 0.00 0.00 0.00 36 1017.3
20260905143904 89 104 8.7 10.4 0.00 0.00 0.00 36 1017.6
20260905143803 89 104 8.7 10.4 0.00 0.00 0.00 35 1017.4
20260905143604 89 104 7.8 9.6 0.00 0.00 0.00 35 1017.4
20260905143504 89 100 7.8 9.6 0.00 0.00 0.00 36 1017.4
20260905143403 89 99 7.0 9.6 0.00 0.00 0.00 36 1017.5
20260905143304 90 94 7.0 8.7 0.00 0.00 0.00 37 1017.4
20260905143104 90 91 7.0 8.7 0.00 0.00 0.00 37 1017.5
20260905142904 90 95 7.0 8.7 0.00 0.00 0.00 36 1017.4
20260905142803 90 98 6.1 8.7 0.00 0.00 0.00 36 1017.5
20260905142704 90 99 6.1 9.6 0.00 0.00 0.00 35 1017.3
20260905142504 90 101 7.0 9.6 0.00 0.00 0.00 34 1017.3
20260905142403 90 100 7.0 9.6 0.00 0.00 0.00 34 1017.4
20260905142306 90 99 7.0 9.6 0.00 0.00 0.00 34 1017.5
20260905142203 90 100 7.0 9.6 0.00 0.00 0.00 34 1017.4
20260905142104 90 100 7.0 9.6 0.00 0.00 0.00 35 1017.5
20260905142004 90 97 7.0 9.6 0.00 0.00 0.00 34 1017.6
20260905141903 90 95 6.1 9.6 0.00 0.00 0.00 35 1017.4
20260905141804 90 93 6.1 9.6 0.00 0.00 0.00 36 1017.4
20260905141603 91 89 5.2 8.7 0.00 0.00 0.00 36 1017.6
20260905141505 91 89 5.2 8.7 0.00 0.00 0.00 36 1017.6
20260905141404 91 91 5.2 8.7 0.00 0.00 0.00 36 1017.7
20260905141303 91 95 6.1 8.7 0.00 0.00 0.00 36 1017.5
20260905140904 90 96 7.0 8.7 0.00 0.00 0.00 36 1017.4
20260905140803 90 97 7.0 8.7 0.00 0.00 0.00 36 1017.3
20260905140604 91 97 7.0 8.7 0.00 0.00 0.00 37 1017.5
20260905140503 91 101 7.0 8.7 0.00 0.00 0.00 36 1017.5
20260905140304 91 98 7.0 8.7 0.00 0.00 0.00 35 1017.7
20260905140103 92 104 6.1 8.7 0.00 0.00 0.00 34 1017.6
20260905140005 92 104 6.1 8.7 0.00 0.00 0.00 34 1017.5
20260905135903 92 98 6.1 7.0 0.00 0.00 0.00 34 1017.6
20260905135803 92 100 6.1 7.0 0.00 0.00 0.00 33 1017.3
20260905135704 91 100 6.1 7.0 0.00 0.00 0.00 33 1017.5
20260905135603 91 98 6.1 7.0 0.00 0.00 0.00 33 1017.5
20260905135503 91 93 6.1 7.0 0.00 0.00 0.00 33 1017.5
20260905135404 91 91 6.1 7.0 0.00 0.00 0.00 32 1017.7
20260905135306 91 91 6.1 7.0 0.00 0.00 0.00 32 1017.4
20260905135203 91 91 5.2 7.0 0.00 0.00 0.00 32 1017.6
20260905135104 91 90 5.2 7.0 0.00 0.00 0.00 31 1017.6
20260905134903 91 90 5.2 7.0 0.00 0.00 0.00 30 1017.4
20260905134804 91 87 5.2 7.0 0.00 0.00 0.00 31 1017.4
20260905134703 91 87 5.2 7.0 0.00 0.00 0.00 31 1017.5
20260905134504 91 90 6.1 10.4 0.00 0.00 0.00 31 1017.8
20260905134303 91 90 6.1 10.4 0.00 0.00 0.00 31 1017.7
20260905134104 91 91 7.0 10.4 0.00 0.00 0.00 32 1017.7
20260905134003 91 90 7.0 10.4 0.00 0.00 0.00 32 1017.7
20260905133703 91 93 7.0 10.4 0.00 0.00 0.00 31 1017.6
20260905133606 91 93 6.1 10.4 0.00 0.00 0.00 31 1017.7
20260905133505 91 97 6.1 7.8 0.00 0.00 0.00 31 1017.6
20260905133404 91 96 6.1 7.8 0.00 0.00 0.00 31 1017.8
20260905133304 91 96 5.2 7.8 0.00 0.00 0.00 32 1017.7
20260905133205 92 92 5.2 7.8 0.00 0.00 0.00 32 1017.8
20260905133105 92 90 5.2 7.8 0.00 0.00 0.00 32 1017.8
20260905132905 92 81 5.2 7.8 0.00 0.00 0.00 32 1017.9
20260905132804 92 76 5.2 7.8 0.00 0.00 0.00 33 1017.8
20260905132605 92 77 5.2 7.8 0.00 0.00 0.00 32 1017.8
20260905132505 92 67 5.2 7.8 0.00 0.00 0.00 32 1018.0
20260905132404 92 67 5.2 7.8 0.00 0.00 0.00 32 1017.9
20260905132306 92 66 5.2 7.8 0.00 0.00 0.00 32 1017.8
20260905132104 92 75 5.2 7.8 0.00 0.00 0.00 32 1017.8
20260905131905 92 75 4.3 5.2 0.00 0.00 0.00 32 1017.8
20260905131805 92 79 4.3 5.2 0.00 0.00 0.00 32 1017.9
20260905131704 92 83 5.2 7.8 0.00 0.00 0.00 33 1017.6
20260905131605 92 80 5.2 7.8 0.00 0.00 0.00 32 1017.7
20260905131405 92 84 5.2 7.8 0.00 0.00 0.00 32 1018.0
20260905131305 92 82 5.2 7.8 0.00 0.00 0.00 32 1017.9
20260905131104 92 82 5.2 7.8 0.00 0.00 0.00 31 1017.8
20260905131005 92 84 5.2 7.8 0.00 0.00 0.00 32 1018.0
20260905130905 92 88 5.2 7.8 0.00 0.00 0.00 32 1017.7
20260905130805 92 86 5.2 7.8 0.00 0.00 0.00 32 1018.0
20260905130504 92 83 4.3 7.8 0.00 0.00 0.00 31 1017.8
20260905130405 93 73 4.3 7.8 0.00 0.00 0.00 31 1017.8
20260905130305 93 76 4.3 7.8 0.00 0.00 0.00 31 1018.0
20260905130104 93 69 4.3 6.1 0.00 0.00 0.00 30 1017.8
20260905130005 93 72 5.2 7.0 0.00 0.00 0.00 30 1018.0
20260905125904 93 74 5.2 7.0 0.00 0.00 0.00 30 1017.9
20260905125805 92 75 5.2 7.0 0.00 0.00 0.00 30 1017.9
20260905125705 92 77 6.1 7.0 0.00 0.00 0.00 30 1017.8
20260905125604 92 81 6.1 8.7 0.00 0.00 0.00 30 1017.9
20260905125505 92 86 6.1 8.7 0.00 0.00 0.00 30 1017.7
20260905125306 91 96 7.0 8.7 0.00 0.00 0.00 31 1017.8
20260905125204 91 95 7.0 8.7 0.00 0.00 0.00 31 1017.9
20260905125105 91 95 7.0 8.7 0.00 0.00 0.00 31 1018.0
20260905125005 91 94 7.0 8.7 0.00 0.00 0.00 31 1017.7
20260905124805 92 91 7.0 8.7 0.00 0.00 0.00 31 1017.9
20260905124705 92 91 6.1 8.7 0.00 0.00 0.00 31 1017.8
20260905124604 92 91 6.1 8.7 0.00 0.00 0.00 31 1017.9
20260905124405 92 85 6.1 7.0 0.00 0.00 0.00 31 1018.0
20260905124304 92 87 6.1 7.0 0.00 0.00 0.00 31 1017.9
20260905124105 91 88 6.1 8.7 0.00 0.00 0.00 31 1017.9
20260905124004 91 90 6.1 8.7 0.00 0.00 0.00 32 1018.1
20260905123905 91 91 7.0 8.7 0.00 0.00 0.00 32 1017.8
20260905123806 91 95 7.0 8.7 0.00 0.00 0.00 32 1017.8
20260905123704 91 97 7.0 8.7 0.00 0.00 0.00 32 1017.7
20260905123604 91 95 7.0 8.7 0.00 0.00 0.00 32 1017.8
20260905123505 91 91 7.0 8.7 0.00 0.00 0.00 33 1017.9
20260905123404 91 92 7.0 8.7 0.00 0.00 0.00 33 1018.0
20260905123304 92 93 7.0 10.4 0.00 0.00 0.00 34 1018.0
20260905123205 92 96 7.0 10.4 0.00 0.00 0.00 34 1018.0
20260905123105 92 99 7.0 10.4 0.00 0.00 0.00 33 1018.1
20260905123004 92 93 7.0 10.4 0.00 0.00 0.00 33 1018.0
20260905122905 92 94 7.0 10.4 0.00 0.00 0.00 32 1018.0
20260905122805 92 94 7.0 10.4 0.00 0.00 0.00 32 1018.0
20260905122705 92 94 7.0 10.4 0.00 0.00 0.00 31 1018.2
20260905122604 92 91 7.0 10.4 0.00 0.00 0.00 31 1018.2
20260905122505 92 91 7.0 10.4 0.00 0.00 0.00 31 1017.9
20260905122405 92 89 6.1 10.4 0.00 0.00 0.00 31 1018.0
20260905122306 92 83 6.1 10.4 0.00 0.00 0.00 31 1018.1
20260905122205 91 82 6.1 7.8 0.00 0.00 0.00 32 1018.0
20260905122004 91 76 6.1 7.8 0.00 0.00 0.00 33 1018.0
20260905121904 91 73 6.1 7.8 0.00 0.00 0.00 32 1018.0
20260905121705 91 65 5.2 7.0 0.00 0.00 0.00 32 1018.1
20260905121505 92 77 6.1 9.6 0.00 0.00 0.00 31 1018.1
20260905121405 92 74 6.1 9.6 0.00 0.00 0.00 31 1018.2
20260905121305 92 70 6.1 9.6 0.00 0.00 0.00 33 1018.3
20260905121204 91 66 7.0 9.6 0.00 0.00 0.00 33 1018.1
20260905121105 91 74 7.0 9.6 0.00 0.00 0.00 32 1018.3
20260905121005 91 76 7.0 9.6 0.00 0.00 0.00 32 1018.2
20260905120904 91 76 7.0 9.6 0.00 0.00 0.00 33 1018.2
20260905120805 91 80 7.0 9.6 0.00 0.00 0.00 33 1018.3
20260905120705 91 77 7.0 9.6 0.00 0.00 0.00 32 1018.2
20260905120604 91 78 7.0 9.6 0.00 0.00 0.00 33 1018.2
20260905120504 91 76 7.0 9.6 0.00 0.00 0.00 32 1018.3
20260905120405 92 77 7.0 8.7 0.00 0.00 0.00 32 1018.3
20260905120205 92 85 7.0 9.6 0.00 0.00 0.00 31 1018.2
20260905120006 91 79 7.0 9.6 0.00 0.00 0.00 32 1018.3
20260905115905 91 82 7.0 9.6 0.00 0.00 0.00 32 1018.3
20260905115805 91 82 7.0 9.6 0.00 0.00 0.00 32 1018.3
20260905115704 92 81 7.0 9.6 0.00 0.00 0.00 32 1018.3
20260905115204 92 77 5.2 7.0 0.00 0.00 0.00 32 1018.4
20260905115005 92 77 6.1 9.6 0.00 0.00 0.00 31 1018.3
20260905114904 92 76 6.1 9.6 0.00 0.00 0.00 31 1018.4
20260905114804 91 74 6.1 9.6 0.00 0.00 0.00 33 1018.1
20260905114705 91 77 6.1 9.6 0.00 0.00 0.00 33 1018.4
20260905114604 91 77 7.0 9.6 0.00 0.00 0.00 33 1018.2
20260905114505 91 78 7.0 9.6 0.00 0.00 0.00 33 1018.4
20260905114405 91 78 7.0 9.6 0.00 0.00 0.00 33 1018.3
20260905114205 92 77 7.0 9.6 0.00 0.00 0.00 33 1018.4
20260905114104 92 82 7.0 9.6 0.00 0.00 0.00 33 1018.2
20260905114004 92 78 7.0 9.6 0.00 0.00 0.00 33 1018.4
20260905113904 92 66 7.0 9.6 0.00 0.00 0.00 32 1018.2
20260905113805 92 62 7.0 9.6 0.00 0.00 0.00 32 1018.4
20260905113604 92 53 6.1 9.6 0.00 0.00 0.00 32 1018.3
20260905113504 92 51 6.1 9.6 0.00 0.00 0.00 32 1018.2
20260905113405 92 48 6.1 9.6 0.00 0.00 0.00 34 1018.4
20260905113204 92 38 6.1 9.6 0.00 0.00 0.00 34 1018.4
20260905113005 92 37 6.1 7.8 0.00 0.00 0.00 31 1018.4
20260905112904 92 46 6.1 7.0 0.00 0.00 0.00 32 1018.5
20260905112805 92 55 5.2 7.0 0.00 0.00 0.00 33 1018.5
20260905112705 92 53 6.1 7.0 0.00 0.00 0.00 33 1018.3
20260905112604 92 58 5.2 7.0 0.00 0.00 0.00 32 1018.5
20260905112205 92 76 5.2 7.0 0.00 0.00 0.00 35 1018.4
20260905112104 92 82 6.1 10.4 0.00 0.00 0.00 35 1018.3
20260905111704 92 97 7.0 13.0 0.00 0.00 0.00 35 1018.4
20260905111505 91 94 7.8 13.0 0.00 0.00 0.00 35 1018.4
20260905111405 91 95 7.8 13.0 0.00 0.00 0.00 36 1018.5
20260905111305 90 95 7.8 13.0 0.00 0.00 0.00 36 1018.2
20260905111204 90 97 7.8 13.0 0.00 0.00 0.00 36 1018.4
20260905111104 90 96 7.0 13.0 0.00 0.00 0.00 35 1018.3
20260905111005 90 95 7.0 13.0 0.00 0.00 0.00 35 1018.2
20260905110905 92 95 6.1 13.0 0.00 0.00 0.00 35 1018.3
20260905110804 92 90 6.1 13.0 0.00 0.00 0.00 35 1018.3
20260905110704 93 80 5.2 8.7 0.00 0.00 0.00 35 1018.3
20260905110605 94 77 5.2 8.7 0.00 0.00 0.00 34 1018.4
20260905110105 93 55 5.2 7.0 0.00 0.00 0.00 32 1018.4
20260905110005 93 48 5.2 7.0 0.00 0.00 0.00 32 1018.2
20260905105904 93 52 5.2 7.0 0.00 0.00 0.00 30 1018.4
20260905105804 93 54 5.2 7.8 0.00 0.00 0.00 29 1018.3
20260905105705 94 60 5.2 7.8 0.00 0.00 0.00 29 1018.3
20260905105604 94 63 6.1 7.8 0.00 0.00 0.00 29 1018.3
20260905105504 94 72 5.2 7.8 0.00 0.00 0.00 28 1018.3
20260905105405 94 76 5.2 7.8 0.00 0.00 0.00 28 1018.4
20260905105306 94 73 6.1 7.8 0.00 0.00 0.00 29 1018.4
20260905105104 93 70 5.2 7.8 0.00 0.00 0.00 31 1018.4
20260905105004 93 73 6.1 7.8 0.00 0.00 0.00 33 1018.3
20260905104905 93 69 5.2 7.8 0.00 0.00 0.00 32 1018.2
20260905104804 93 71 5.2 7.8 0.00 0.00 0.00 35 1018.3
20260905104705 92 65 5.2 7.0 0.00 0.00 0.00 35 1018.4
20260905104605 92 71 6.1 7.0 0.00 0.00 0.00 34 1018.3
20260905104505 92 65 6.1 9.6 0.00 0.00 0.00 35 1018.4
20260905104404 92 58 6.1 9.6 0.00 0.00 0.00 35 1018.4
20260905104304 91 58 6.1 9.6 0.00 0.00 0.00 35 1018.6
20260905104205 91 59 5.2 9.6 0.00 0.00 0.00 35 1018.2
20260905104105 91 57 6.1 9.6 0.00 0.00 0.00 36 1018.4
20260905104004 91 60 6.1 9.6 0.00 0.00 0.00 36 1018.2
20260905103805 91 65 6.1 9.6 0.00 0.00 0.00 36 1018.4
20260905103704 91 64 6.1 9.6 0.00 0.00 0.00 35 1018.3
20260905103505 90 42 6.1 9.6 0.00 0.00 0.00 36 1018.4
20260905103405 90 44 5.2 9.6 0.00 0.00 0.00 36 1018.4
20260905103304 90 41 6.1 9.6 0.00 0.00 0.00 36 1018.5
20260905103204 90 37 6.1 9.6 0.00 0.00 0.00 36 1018.4
20260905103105 90 36 5.2 9.6 0.00 0.00 0.00 36 1018.6
20260905103006 91 26 5.2 9.6 0.00 0.00 0.00 36 1018.3
20260905102904 91 17 5.2 9.6 0.00 0.00 0.00 37 1018.7
20260905102804 91 10 5.2 9.6 0.00 0.00 0.00 36 1018.3
20260905102705 91 359 5.2 9.6 0.00 0.00 0.00 36 1018.4
20260905102605 91 5 4.3 7.0 0.00 0.00 0.00 36 1018.4
20260905102504 91 14 4.3 7.0 0.00 0.00 0.00 36 1018.5
20260905102404 91 15 4.3 7.0 0.00 0.00 0.00 36 1018.5
20260905102306 91 24 4.3 7.0 0.00 0.00 0.00 35 1018.4
20260905102204 91 32 4.3 7.0 0.00 0.00 0.00 35 1018.5
20260905102104 92 31 4.3 7.0 0.00 0.00 0.00 35 1018.6
20260905101905 92 53 5.2 7.0 0.00 0.00 0.00 35 1018.5
20260905101804 91 65 5.2 7.0 0.00 0.00 0.00 35 1018.6
20260905101705 91 76 5.2 7.0 0.00 0.00 0.00 35 1018.5
20260905101604 91 82 5.2 7.0 0.00 0.00 0.00 36 1018.4
20260905101404 90 78 5.2 7.0 0.00 0.00 0.00 37 1018.6
20260905101204 90 71 6.1 7.0 0.00 0.00 0.00 41 1018.6
20260905101106 90 65 6.1 7.0 0.00 0.00 0.00 41 1018.7
20260905101004 90 61 6.1 7.0 0.00 0.00 0.00 41 1018.6
20260905100905 90 59 6.1 7.0 0.00 0.00 0.00 41 1018.7
20260905100804 90 56 6.1 7.0 0.00 0.00 0.00 41 1018.6
20260905100504 90 53 5.2 7.0 0.00 0.00 0.00 41 1018.5
20260905100404 90 49 5.2 7.0 0.00 0.00 0.00 41 1018.5
20260905100305 90 48 4.3 7.0 0.00 0.00 0.00 41 1018.5
20260905100105 90 69 4.3 7.0 0.00 0.00 0.00 39 1018.4
20260905100005 90 74 4.3 7.0 0.00 0.00 0.00 42 1018.7
20260905095805 90 75 4.3 7.0 0.00 0.00 0.00 41 1018.5
20260905095705 90 72 5.2 7.0 0.00 0.00 0.00 41 1018.4
20260905095604 90 54 5.2 7.0 0.00 0.00 0.00 42 1018.5
20260905095505 89 55 5.2 7.0 0.00 0.00 0.00 43 1018.5
20260905095405 89 58 5.2 7.0 0.00 0.00 0.00 43 1018.4
20260905095204 89 59 6.1 7.0 0.00 0.00 0.00 43 1018.5
20260905095106 89 58 6.1 7.0 0.00 0.00 0.00 43 1018.5
20260905095005 89 49 6.1 7.0 0.00 0.00 0.00 43 1018.5
20260905094905 89 44 5.2 7.0 0.00 0.00 0.00 39 1018.7
20260905094804 89 53 5.2 7.0 0.00 0.00 0.00 38 1018.5
20260905094605 90 54 5.2 7.0 0.00 0.00 0.00 39 1018.6
20260905094504 90 54 5.2 8.7 0.00 0.00 0.00 36 1018.5
20260905094304 90 53 5.2 8.7 0.00 0.00 0.00 36 1018.4
20260905094204 90 55 5.2 8.7 0.00 0.00 0.00 36 1018.3
20260905094105 90 46 5.2 8.7 0.00 0.00 0.00 35 1018.5
20260905094005 90 40 5.2 8.7 0.00 0.00 0.00 36 1018.4
20260905093904 90 30 6.1 8.7 0.00 0.00 0.00 36 1018.3
20260905093804 90 24 6.1 8.7 0.00 0.00 0.00 36 1018.3
20260905093705 91 31 6.1 8.7 0.00 0.00 0.00 35 1018.2
20260905093405 92 24 5.2 8.7 0.00 0.00 0.00 33 1018.4
20260905093304 92 19 5.2 7.0 0.00 0.00 0.00 31 1018.5
20260905093205 92 13 5.2 7.0 0.00 0.00 0.00 31 1018.5
20260905093105 92 18 5.2 7.0 0.00 0.00 0.00 33 1018.5
20260905092905 92 38 5.2 7.0 0.00 0.00 0.00 32 1018.2
20260905092806 92 43 5.2 7.0 0.00 0.00 0.00 31 1018.3
20260905092704 92 38 4.3 7.0 0.00 0.00 0.00 32 1018.4
20260905092604 92 29 4.3 7.0 0.00 0.00 0.00 33 1018.4
20260905092505 92 27 4.3 7.0 0.00 0.00 0.00 33 1018.4
20260905092404 92 16 4.3 7.0 0.00 0.00 0.00 33 1018.5
20260905092306 92 14 4.3 7.0 0.00 0.00 0.00 32 1018.2
20260905092204 92 16 4.3 7.0 0.00 0.00 0.00 33 1018.4
20260905092105 92 19 4.3 7.0 0.00 0.00 0.00 33 1018.3
20260905091905 93 19 3.5 6.1 0.00 0.00 0.00 32 1018.5
20260905091804 93 13 3.5 6.1 0.00 0.00 0.00 31 1018.5
20260905091704 93 36 4.3 7.0 0.00 0.00 0.00 31 1018.6
20260905091605 93 57 4.3 7.0 0.00 0.00 0.00 30 1018.7
20260905091504 93 59 4.3 7.0 0.00 0.00 0.00 30 1018.6
20260905091405 93 62 4.3 7.0 0.00 0.00 0.00 29 1018.5
20260905091304 92 66 4.3 7.0 0.00 0.00 0.00 30 1018.4
20260905091204 92 63 4.3 7.0 0.00 0.00 0.00 32 1018.3
20260905091104 92 53 3.5 7.0 0.00 0.00 0.00 31 1018.3
20260905091005 92 51 3.5 7.0 0.00 0.00 0.00 30 1018.4
20260905090904 92 28 3.5 7.0 0.00 0.00 0.00 31 1018.3
20260905090804 92 17 4.3 7.0 0.00 0.00 0.00 31 1018.2
20260905090504 92 301 3.5 4.3 0.00 0.00 0.00 30 1018.4
20260905090404 91 300 3.5 6.1 0.00 0.00 0.00 30 1018.1
20260905090305 91 303 3.5 6.1 0.00 0.00 0.00 28 1018.0
20260905090204 91 307 4.3 6.1 0.00 0.00 0.00 27 1018.1
20260905090005 91 316 4.3 6.1 0.00 0.00 0.00 28 1018.2
20260905085905 91 325 4.3 6.1 0.00 0.00 0.00 28 1018.1
20260905085804 91 332 4.3 6.1 0.00 0.00 0.00 28 1018.2
20260905085705 91 337 4.3 6.1 0.00 0.00 0.00 28 1018.0
20260905085604 91 335 4.3 6.1 0.00 0.00 0.00 28 1018.2
20260905085505 91 342 4.3 6.1 0.00 0.00 0.00 28 1018.2
20260905085404 91 351 4.3 6.1 0.00 0.00 0.00 27 1018.0
20260905085306 91 349 4.3 5.2 0.00 0.00 0.00 27 1018.1
20260905085204 91 342 4.3 5.2 0.00 0.00 0.00 27 1018.2
20260905084905 91 336 3.5 4.3 0.00 0.00 0.00 28 1018.1
20260905084804 91 344 3.5 4.3 0.00 0.00 0.00 28 1018.0
20260905084704 91 353 3.5 4.3 0.00 0.00 0.00 29 1018.1
20260905084605 91 12 3.5 4.3 0.00 0.00 0.00 29 1018.1
20260905084504 91 23 3.5 5.2 0.00 0.00 0.00 29 1018.1
20260905084305 91 43 3.5 5.2 0.00 0.00 0.00 29 1018.0
20260905084204 91 56 3.5 5.2 0.00 0.00 0.00 30 1018.1
20260905084104 90 66 3.5 5.2 0.00 0.00 0.00 30 1018.1
20260905084005 90 66 3.5 5.2 0.00 0.00 0.00 29 1018.1
20260905083904 90 69 4.3 5.2 0.00 0.00 0.00 30 1018.1
20260905083705 91 64 4.3 6.1 0.00 0.00 0.00 32 1018.2
20260905083504 91 51 3.5 6.1 0.00 0.00 0.00 33 1018.2
20260905083404 91 50 3.5 6.1 0.00 0.00 0.00 33 1018.0
20260905083306 91 34 3.5 6.1 0.00 0.00 0.00 33 1018.0
20260905083205 91 9 3.5 6.1 0.00 0.00 0.00 33 1018.0
20260905083104 92 356 3.5 6.1 0.00 0.00 0.00 34 1017.9
20260905083005 92 342 3.5 6.1 0.00 0.00 0.00 34 1018.0
20260905082804 92 318 3.5 6.1 0.00 0.00 0.00 32 1017.9
20260905082705 91 315 3.5 6.1 0.00 0.00 0.00 32 1018.0
20260905082504 91 307 3.5 6.1 0.00 0.00 0.00 32 1018.0
20260905082404 91 310 3.5 6.1 0.00 0.00 0.00 32 1017.9
20260905082204 90 314 3.5 6.1 0.00 0.00 0.00 31 1018.0
20260905082104 90 312 3.5 5.2 0.00 0.00 0.00 32 1017.9
20260905082004 90 311 4.3 5.2 0.00 0.00 0.00 32 1018.0
20260905081905 90 312 3.5 5.2 0.00 0.00 0.00 32 1017.9
20260905081805 90 318 3.5 5.2 0.00 0.00 0.00 33 1018.1
20260905081704 91 317 3.5 7.0 0.00 0.00 0.00 33 1017.8
20260905081604 91 327 4.3 7.0 0.00 0.00 0.00 33 1018.0
20260905081505 91 332 4.3 7.0 0.00 0.00 0.00 33 1017.7
20260905081404 91 335 4.3 7.0 0.00 0.00 0.00 33 1017.9
20260905081305 91 336 3.5 7.0 0.00 0.00 0.00 33 1017.8
20260905081104 91 344 3.5 7.0 0.00 0.00 0.00 33 1017.9
20260905081004 91 350 3.5 7.0 0.00 0.00 0.00 33 1017.9
20260905080904 91 350 3.5 7.0 0.00 0.00 0.00 32 1017.9
20260905080805 92 346 3.5 7.0 0.00 0.00 0.00 33 1017.9
20260905080705 92 348 3.5 7.0 0.00 0.00 0.00 32 1018.2
20260905080604 92 354 2.6 7.0 0.00 0.00 0.00 31 1017.9
20260905080504 92 356 2.6 4.3 0.00 0.00 0.00 31 1017.9
20260905080405 92 2 2.6 4.3 0.00 0.00 0.00 30 1017.8
20260905080006 92 40 1.7 2.6 0.00 0.00 0.00 30 1017.9
20260905075805 92 68 2.6 3.5 0.00 0.00 0.00 30 1017.8
20260905075704 92 76 2.6 3.5 0.00 0.00 0.00 30 1017.8
20260905075605 92 84 2.6 3.5 0.00 0.00 0.00 29 1017.6
20260905075504 92 89 2.6 3.5 0.00 0.00 0.00 30 1017.8
20260905075306 92 96 2.6 3.5 0.00 0.00 0.00 31 1017.7
20260905075205 92 97 2.6 3.5 0.00 0.00 0.00 30 1017.6
20260905075104 92 97 2.6 3.5 0.00 0.00 0.00 31 1017.6
20260905075004 92 97 2.6 3.5 0.00 0.00 0.00 30 1017.8
20260905074905 92 99 2.6 3.5 0.00 0.00 0.00 31 1017.6
20260905074804 92 103 2.6 3.5 0.00 0.00 0.00 31 1017.6
20260905074704 92 107 2.6 3.5 0.00 0.00 0.00 31 1017.5
20260905074605 92 151 2.6 4.3 0.00 0.00 0.00 31 1017.7
20260905074505 92 201 2.6 4.3 0.00 0.00 0.00 30 1017.8
20260905074404 92 185 2.6 4.3 0.00 0.00 0.00 31 1017.7
20260905074304 92 164 2.6 4.3 0.00 0.00 0.00 31 1017.8
20260905074205 91 143 2.6 4.3 0.00 0.00 0.00 31 1017.9
20260905074104 91 165 2.6 4.3 0.00 0.00 0.00 29 1017.5
20260905073904 92 182 2.6 4.3 0.00 0.00 0.00 26 1017.6
20260905073805 92 129 1.7 4.3 0.00 0.00 0.00 25 1017.7
20260905073604 92 102 1.7 3.5 0.00 0.00 0.00 28 1017.7
20260905073505 92 91 1.7 2.6 0.00 0.00 0.00 29 1017.5
20260905073404 91 90 0.9 2.6 0.00 0.00 0.00 32 1017.4
20260905073205 91 96 0.9 1.7 0.00 0.00 0.00 32 1017.4
20260905073104 91 99 0.9 1.7 0.00 0.00 0.00 31 1017.3
20260905072904 90 102 1.7 1.7 0.00 0.00 0.00 32 1017.6
20260905072804 90 104 1.7 2.6 0.00 0.00 0.00 32 1017.4
20260905072704 90 105 1.7 2.6 0.00 0.00 0.00 32 1017.5
20260905072604 90 105 1.7 2.6 0.00 0.00 0.00 32 1017.4
20260905072505 89 104 1.7 2.6 0.00 0.00 0.00 32 1017.4
20260905072404 89 105 1.7 2.6 0.00 0.00 0.00 33 1017.3
20260905072204 89 105 1.7 2.6 0.00 0.00 0.00 34 1017.4
20260905072105 89 105 1.7 2.6 0.00 0.00 0.00 35 1017.4
20260905072004 89 105 1.7 2.6 0.00 0.00 0.00 34 1017.4
20260905071904 89 106 1.7 2.6 0.00 0.00 0.00 35 1017.5
20260905071805 88 106 1.7 2.6 0.00 0.00 0.00 34 1017.3
20260905071705 88 101 1.7 2.6 0.00 0.00 0.00 35 1017.3
20260905071604 88 104 1.7 2.6 0.00 0.00 0.00 35 1017.4
20260905071505 88 106 1.7 2.6 0.00 0.00 0.00 35 1017.6
20260905071404 88 107 1.7 2.6 0.00 0.00 0.00 35 1017.5
20260905071304 88 107 1.7 1.7 0.00 0.00 0.00 35 1017.4
20260905071204 88 108 1.7 1.7 0.00 0.00 0.00 35 1017.5
20260905071104 88 104 1.7 2.6 0.00 0.00 0.00 35 1017.4
20260905071005 88 101 1.7 2.6 0.00 0.00 0.00 35 1017.4
20260905070904 88 99 1.7 2.6 0.00 0.00 0.00 36 1017.4
20260905070804 88 99 1.7 2.6 0.00 0.00 0.00 34 1017.5
20260905070704 88 104 1.7 2.6 0.00 0.00 0.00 35 1017.5
20260905070604 87 103 1.7 2.6 0.00 0.00 0.00 36 1017.7
20260905070404 87 104 1.7 2.6 0.00 0.00 0.00 35 1017.6
20260905070204 87 104 1.7 2.6 0.00 0.00 0.00 34 1017.5
20260905070104 87 106 1.7 2.6 0.00 0.00 0.00 35 1017.4
20260905070005 87 110 1.7 2.6 0.00 0.00 0.00 34 1017.6